Time,TemperatureF,DewpointF,PressureIn,WindDirection,WindDirectionDegrees,WindSpeedMPH,WindSpeedGustMPH,Humidity,HourlyPrecipIn,Conditions,Clouds,dailyrainin,SolarRadiationWatts/m^2,SoftwareType,DateUTC
2013-09-19 00:00:00,82.6,77.3,29.83,East,94,3.0,8.2,84,0.00,,---,0.01,0.00,VWS V14.01,2013-09-19 05:00:00,
2013-09-19 00:03:00,82.6,77.3,29.82,East,94,3.0,6.2,84,0.00,,---,0.00,0.00,VWS V14.01,2013-09-19 05:03:00,
2013-09-19 00:05:00,82.6,77.3,29.83,SE,124,5.0,10.2,84,0.00,,---,0.00,0.00,VWS V14.01,2013-09-19 05:05:00,
2013-09-19 00:08:00,82.6,77.6,29.82,ESE,118,4.0,8.2,85,0.00,,---,0.00,0.00,VWS V14.01,2013-09-19 05:08:00,
2013-09-19 00:10:00,82.6,77.6,29.83,ESE,109,5.0,10.2,85,0.00,,---,0.00,0.00,VWS V14.01,2013-09-19 05:10:00,
2013-09-19 00:13:00,82.8,77.8,29.82,ESE,108,3.0,6.2,85,0.00,,---,0.00,0.00,VWS V14.01,2013-09-19 05:13:00,
2013-09-19 00:15:00,82.8,77.8,29.83,SE,125,6.0,9.2,85,0.00,,---,0.00,0.00,VWS V14.01,2013-09-19 05:15:00,
2013-09-19 00:18:00,82.8,77.8,29.82,ESE,123,3.0,8.2,85,0.00,,---,0.00,0.00,VWS V14.01,2013-09-19 05:18:00,
2013-09-19 00:20:00,82.6,77.6,29.83,ENE,78,4.0,10.2,85,0.00,,---,0.00,0.00,VWS V14.01,2013-09-19 05:20:00,
2013-09-19 00:23:00,82.6,77.6,29.82,East,79,2.0,6.2,85,0.00,,---,0.00,0.00,VWS V14.01,2013-09-19 05:23:00,
2013-09-19 00:25:00,82.4,77.4,29.83,East,96,2.0,8.2,85,0.00,,---,0.00,0.00,VWS V14.01,2013-09-19 05:25:00,
2013-09-19 00:28:00,82.4,77.4,29.82,East,95,2.0,6.2,85,0.00,,---,0.00,0.00,VWS V14.01,2013-09-19 05:28:00,
2013-09-19 00:30:00,82.4,77.4,29.82,East,95,4.0,7.2,85,0.00,,---,0.00,0.00,VWS V14.01,2013-09-19 05:30:00,
2013-09-19 00:33:00,82.2,77.2,29.82,East,101,2.0,6.2,85,0.00,,---,0.00,0.00,VWS V14.01,2013-09-19 05:33:00,
2013-09-19 00:35:00,82.2,77.2,29.82,East,101,3.0,7.2,85,0.00,,---,0.00,0.00,VWS V14.01,2013-09-19 05:35:00,
2013-09-19 00:38:00,82.2,77.2,29.82,ESE,103,1.0,7.2,85,0.00,,---,0.00,0.00,VWS V14.01,2013-09-19 05:38:00,
2013-09-19 00:40:00,82.2,77.2,29.82,East,97,4.0,11.2,85,0.00,,---,0.00,0.00,VWS V14.01,2013-09-19 05:40:00,
2013-09-19 00:43:00,82.2,77.2,29.82,East,87,3.0,10.2,85,0.00,,---,0.00,0.00,VWS V14.01,2013-09-19 05:43:00,
2013-09-19 00:45:00,82.2,77.6,29.82,ENE,78,4.0,10.2,86,0.00,,---,0.00,0.00,VWS V14.01,2013-09-19 05:45:00,
2013-09-19 00:48:00,82.4,77.8,29.82,SSE,151,2.0,8.2,86,0.00,,---,0.00,0.00,VWS V14.01,2013-09-19 05:48:00,
2013-09-19 00:50:00,82.6,77.6,29.82,ESE,104,6.0,9.2,85,0.00,,---,0.00,0.00,VWS V14.01,2013-09-19 05:50:00,
2013-09-19 00:53:00,82.6,77.6,29.82,ESE,107,5.0,7.2,85,0.00,,---,0.00,0.00,VWS V14.01,2013-09-19 05:53:00,
2013-09-19 00:55:00,82.8,77.8,29.82,East,90,4.0,7.2,85,0.00,,---,0.00,0.00,VWS V14.01,2013-09-19 05:55:00,
2013-09-19 00:58:00,83.0,78.0,29.82,East,95,3.0,10.2,85,0.00,,---,0.00,0.00,VWS V14.01,2013-09-19 05:58:00,
2013-09-19 01:00:00,83.4,78.1,29.82,East,99,3.0,10.2,84,0.00,,---,0.00,0.00,VWS V14.01,2013-09-19 06:00:00,
2013-09-19 01:03:00,83.4,78.1,29.82,ESE,105,5.0,7.2,84,0.00,,---,0.00,0.00,VWS V14.01,2013-09-19 06:03:00,
2013-09-19 01:05:00,83.2,77.9,29.82,ESE,103,4.0,8.2,84,0.00,,---,0.00,0.00,VWS V14.01,2013-09-19 06:05:00,
2013-09-19 01:08:00,83.0,77.7,29.82,East,98,3.0,7.2,84,0.00,,---,0.00,0.00,VWS V14.01,2013-09-19 06:08:00,
2013-09-19 01:10:00,82.6,77.6,29.82,East,98,4.0,8.2,85,0.00,,---,0.00,0.00,VWS V14.01,2013-09-19 06:10:00,
2013-09-19 01:13:00,82.6,78.0,29.82,East,98,2.0,6.2,86,0.00,,---,0.00,0.00,VWS V14.01,2013-09-19 06:13:00,
2013-09-19 01:15:00,82.4,77.8,29.82,ESE,109,10.0,11.2,86,0.00,,---,0.00,0.00,VWS V14.01,2013-09-19 06:15:00,
2013-09-19 01:18:00,82.2,77.6,29.82,East,100,5.0,14.2,86,0.00,,---,0.00,0.00,VWS V14.01,2013-09-19 06:18:00,
2013-09-19 01:20:00,81.6,77.7,29.82,ESE,115,2.0,14.2,88,0.00,,---,0.00,0.00,VWS V14.01,2013-09-19 06:20:00,
2013-09-19 01:23:00,81.4,77.5,29.82,ESE,114,5.0,6.2,88,0.00,,---,0.00,0.00,VWS V14.01,2013-09-19 06:23:00,
2013-09-19 01:25:00,81.1,77.2,29.82,ESE,109,3.0,6.2,88,0.00,,---,0.00,0.00,VWS V14.01,2013-09-19 06:25:00,
2013-09-19 01:28:00,80.9,77.0,29.82,ESE,110,1.0,6.2,88,0.00,,---,0.00,0.00,VWS V14.01,2013-09-19 06:28:00,
2013-09-19 01:30:00,80.9,77.4,29.82,East,96,3.0,7.2,89,0.00,,---,0.00,0.00,VWS V14.01,2013-09-19 06:30:00,
2013-09-19 01:33:00,80.9,77.4,29.82,East,88,5.0,7.2,89,0.00,,---,0.00,0.00,VWS V14.01,2013-09-19 06:33:00,
2013-09-19 01:35:00,81.1,77.9,29.82,SE,136,9.0,13.2,90,0.00,,---,0.00,0.00,VWS V14.01,2013-09-19 06:35:00,
2013-09-19 01:38:00,81.1,77.9,29.82,ESE,113,6.0,16.2,90,0.01,,---,0.01,0.00,VWS V14.01,2013-09-19 06:38:00,
2013-09-19 01:40:00,80.5,76.6,29.82,SE,131,5.0,16.2,88,0.01,,---,0.01,0.00,VWS V14.01,2013-09-19 06:40:00,
2013-09-19 01:43:00,80.7,76.8,29.82,ESE,119,4.0,8.2,88,0.01,,---,0.01,0.00,VWS V14.01,2013-09-19 06:43:00,
2013-09-19 01:45:00,80.7,76.5,29.81,SE,130,3.0,11.2,87,0.01,,---,0.01,0.00,VWS V14.01,2013-09-19 06:45:00,
2013-09-19 01:48:00,80.7,76.5,29.81,SE,129,4.0,6.2,87,0.01,,---,0.01,0.00,VWS V14.01,2013-09-19 06:48:00,
2013-09-19 01:50:00,80.3,76.1,29.81,SE,132,2.0,7.2,87,0.01,,---,0.01,0.00,VWS V14.01,2013-09-19 06:50:00,
2013-09-19 01:53:00,80.3,76.4,29.81,SE,132,3.0,6.2,88,0.01,,---,0.01,0.00,VWS V14.01,2013-09-19 06:53:00,
2013-09-19 01:55:00,80.3,76.4,29.81,ESE,103,6.0,7.2,88,0.01,,---,0.01,0.00,VWS V14.01,2013-09-19 06:55:00,
2013-09-19 01:58:00,80.5,77.0,29.81,ESE,105,3.0,7.2,89,0.01,,---,0.01,0.00,VWS V14.01,2013-09-19 06:58:00,
2013-09-19 02:00:00,80.5,77.0,29.81,East,98,3.0,8.2,89,0.01,,---,0.01,0.00,VWS V14.01,2013-09-19 07:00:00,
2013-09-19 02:03:00,80.5,77.0,29.81,East,96,5.0,7.2,89,0.01,,---,0.01,0.00,VWS V14.01,2013-09-19 07:03:00,
2013-09-19 02:05:00,80.7,77.2,29.81,East,101,3.0,7.2,89,0.01,,---,0.01,0.00,VWS V14.01,2013-09-19 07:05:00,
2013-09-19 02:08:00,80.9,77.4,29.81,East,101,3.0,6.2,89,0.01,,---,0.01,0.00,VWS V14.01,2013-09-19 07:08:00,
2013-09-19 02:10:00,81.1,77.6,29.81,ESE,106,5.0,7.2,89,0.01,,---,0.01,0.00,VWS V14.01,2013-09-19 07:10:00,
2013-09-19 02:13:00,81.2,77.7,29.81,East,100,5.0,8.2,89,0.01,,---,0.01,0.00,VWS V14.01,2013-09-19 07:13:00,
2013-09-19 02:15:00,81.4,77.5,29.81,ESE,109,2.0,8.2,88,0.01,,---,0.01,0.00,VWS V14.01,2013-09-19 07:15:00,
2013-09-19 02:18:00,81.6,77.7,29.81,ESE,109,4.0,6.2,88,0.01,,---,0.01,0.00,VWS V14.01,2013-09-19 07:18:00,
2013-09-19 02:20:00,81.6,77.4,29.81,East,96,5.0,9.2,87,0.01,,---,0.01,0.00,VWS V14.01,2013-09-19 07:20:00,
2013-09-19 02:23:00,81.6,77.4,29.81,ESE,109,4.0,6.2,87,0.01,,---,0.01,0.00,VWS V14.01,2013-09-19 07:23:00,
2013-09-19 02:25:00,81.8,77.6,29.81,ESE,117,2.0,8.2,87,0.01,,---,0.01,0.00,VWS V14.01,2013-09-19 07:25:00,
2013-09-19 02:28:00,81.8,77.6,29.81,ESE,115,3.0,6.2,87,0.01,,---,0.01,0.00,VWS V14.01,2013-09-19 07:28:00,
2013-09-19 02:30:00,81.6,77.4,29.81,ESE,115,5.0,8.2,87,0.01,,---,0.01,0.00,VWS V14.01,2013-09-19 07:30:00,
2013-09-19 02:33:00,81.6,77.4,29.81,ESE,114,2.0,7.2,87,0.01,,---,0.01,0.00,VWS V14.01,2013-09-19 07:33:00,
2013-09-19 02:35:00,81.6,77.4,29.81,ESE,108,1.0,8.2,87,0.01,,---,0.01,0.00,VWS V14.01,2013-09-19 07:35:00,
2013-09-19 02:38:00,81.6,77.4,29.81,ESE,108,3.0,5.2,87,0.01,,---,0.01,0.00,VWS V14.01,2013-09-19 07:38:00,
2013-09-19 02:40:00,81.4,77.2,29.81,ESE,111,1.0,6.2,87,0.01,,---,0.01,0.00,VWS V14.01,2013-09-19 07:40:00,
2013-09-19 02:43:00,81.4,77.2,29.81,ESE,115,3.0,8.2,87,0.00,,---,0.01,0.00,VWS V14.01,2013-09-19 07:43:00,
2013-09-19 02:45:00,81.2,77.0,29.80,ESE,108,6.0,8.2,87,0.00,,---,0.01,0.00,VWS V14.01,2013-09-19 07:45:00,
2013-09-19 02:48:00,81.4,77.2,29.80,ESE,107,4.0,7.2,87,0.00,,---,0.01,0.00,VWS V14.01,2013-09-19 07:48:00,
2013-09-19 02:50:00,81.4,77.5,29.80,ESE,105,1.0,7.2,88,0.00,,---,0.01,0.00,VWS V14.01,2013-09-19 07:50:00,
2013-09-19 02:53:00,81.2,77.3,29.80,ESE,106,2.0,8.2,88,0.00,,---,0.01,0.00,VWS V14.01,2013-09-19 07:53:00,
2013-09-19 02:55:00,81.2,77.0,29.80,East,93,2.0,8.2,87,0.00,,---,0.01,0.00,VWS V14.01,2013-09-19 07:55:00,
2013-09-19 02:58:00,81.2,77.0,29.80,East,93,4.0,5.2,87,0.00,,---,0.01,0.00,VWS V14.01,2013-09-19 07:58:00,
2013-09-19 03:00:00,81.2,77.0,29.80,East,96,4.0,7.2,87,0.00,,---,0.01,0.00,VWS V14.01,2013-09-19 08:00:00,
2013-09-19 03:03:00,81.2,77.0,29.80,ESE,114,3.0,7.2,87,0.00,,---,0.01,0.00,VWS V14.01,2013-09-19 08:03:00,
2013-09-19 03:05:00,81.2,77.0,29.80,East,101,1.0,7.2,87,0.00,,---,0.01,0.00,VWS V14.01,2013-09-19 08:05:00,
2013-09-19 03:08:00,81.2,77.0,29.80,ESE,104,3.0,7.2,87,0.00,,---,0.01,0.00,VWS V14.01,2013-09-19 08:08:00,
2013-09-19 03:10:00,81.2,77.0,29.80,ESE,105,4.0,7.2,87,0.00,,---,0.01,0.00,VWS V14.01,2013-09-19 08:10:00,
2013-09-19 03:13:00,81.2,77.0,29.80,ESE,104,6.0,7.2,87,0.00,,---,0.01,0.00,VWS V14.01,2013-09-19 08:13:00,
2013-09-19 03:15:00,81.2,77.0,29.79,ESE,119,4.0,8.2,87,0.00,,---,0.01,0.00,VWS V14.01,2013-09-19 08:15:00,
2013-09-19 03:18:00,81.2,77.0,29.79,ESE,113,2.0,6.2,87,0.00,,---,0.01,0.00,VWS V14.01,2013-09-19 08:18:00,
2013-09-19 03:20:00,81.2,77.3,29.79,ESE,113,3.0,7.2,88,0.00,,---,0.01,0.00,VWS V14.01,2013-09-19 08:20:00,
2013-09-19 03:23:00,81.2,77.3,29.79,ESE,113,1.0,6.2,88,0.00,,---,0.01,0.00,VWS V14.01,2013-09-19 08:23:00,
2013-09-19 03:25:00,81.4,77.5,29.79,ESE,113,1.0,6.2,88,0.00,,---,0.01,0.00,VWS V14.01,2013-09-19 08:25:00,
2013-09-19 03:28:00,81.6,77.7,29.79,ESE,113,3.0,5.2,88,0.00,,---,0.01,0.00,VWS V14.01,2013-09-19 08:28:00,
2013-09-19 03:30:00,81.8,77.6,29.79,ESE,113,2.0,5.2,87,0.00,,---,0.01,0.00,VWS V14.01,2013-09-19 08:30:00,
2013-09-19 03:33:00,81.8,77.6,29.79,ESE,113,2.0,4.2,87,0.00,,---,0.01,0.00,VWS V14.01,2013-09-19 08:33:00,
2013-09-19 03:35:00,82.0,77.8,29.79,ESE,113,3.0,6.2,87,0.00,,---,0.01,0.00,VWS V14.01,2013-09-19 08:35:00,
2013-09-19 03:38:00,82.2,77.9,29.79,ESE,113,3.0,4.2,87,0.00,,---,0.01,0.00,VWS V14.01,2013-09-19 08:38:00,
2013-09-19 03:40:00,82.2,77.6,29.79,ESE,112,2.0,6.2,86,0.00,,---,0.01,0.00,VWS V14.01,2013-09-19 08:40:00,
2013-09-19 03:43:00,82.2,77.9,29.79,ESE,112,4.0,5.2,87,0.00,,---,0.01,0.00,VWS V14.01,2013-09-19 08:43:00,
2013-09-19 03:45:00,82.2,77.9,29.78,ESE,115,2.0,7.2,87,0.00,,---,0.01,0.00,VWS V14.01,2013-09-19 08:45:00,
2013-09-19 03:48:00,82.0,77.4,29.78,ESE,115,3.0,5.2,86,0.00,,---,0.01,0.00,VWS V14.01,2013-09-19 08:48:00,
2013-09-19 03:50:00,81.8,77.6,29.78,ESE,113,2.0,8.2,87,0.00,,---,0.01,0.00,VWS V14.01,2013-09-19 08:50:00,
2013-09-19 03:53:00,81.6,77.4,29.78,ESE,113,3.0,5.2,87,0.00,,---,0.01,0.00,VWS V14.01,2013-09-19 08:53:00,
2013-09-19 03:55:00,81.4,77.2,29.78,ESE,112,3.0,6.2,87,0.00,,---,0.01,0.00,VWS V14.01,2013-09-19 08:55:00,
2013-09-19 03:58:00,81.4,77.2,29.78,ESE,112,3.0,6.2,87,0.00,,---,0.01,0.00,VWS V14.01,2013-09-19 08:58:00,
2013-09-19 04:00:00,81.2,77.3,29.78,ESE,110,5.0,6.2,88,0.00,,---,0.01,0.00,VWS V14.01,2013-09-19 09:00:00,
2013-09-19 04:03:00,81.2,77.3,29.78,ESE,110,1.0,6.2,88,0.00,,---,0.01,0.00,VWS V14.01,2013-09-19 09:03:00,
2013-09-19 04:05:00,81.2,77.3,29.78,ESE,111,1.0,6.2,88,0.00,,---,0.01,0.00,VWS V14.01,2013-09-19 09:05:00,
2013-09-19 04:08:00,81.2,77.3,29.78,ESE,110,4.0,6.2,88,0.00,,---,0.01,0.00,VWS V14.01,2013-09-19 09:08:00,
2013-09-19 04:10:00,81.1,77.2,29.78,ESE,109,4.0,6.2,88,0.00,,---,0.01,0.00,VWS V14.01,2013-09-19 09:10:00,
2013-09-19 04:13:00,81.1,77.6,29.78,ESE,109,1.0,5.2,89,0.00,,---,0.01,0.00,VWS V14.01,2013-09-19 09:13:00,
2013-09-19 04:15:00,81.2,77.7,29.78,East,84,5.0,8.2,89,0.00,,---,0.01,0.00,VWS V14.01,2013-09-19 09:15:00,
2013-09-19 04:18:00,81.2,77.7,29.78,East,84,3.0,7.2,89,0.00,,---,0.01,0.00,VWS V14.01,2013-09-19 09:18:00,
2013-09-19 04:20:00,81.2,77.3,29.78,East,84,4.0,7.2,88,0.00,,---,0.01,0.00,VWS V14.01,2013-09-19 09:20:00,
2013-09-19 04:23:00,81.2,77.3,29.78,East,84,1.0,6.2,88,0.00,,---,0.01,0.00,VWS V14.01,2013-09-19 09:23:00,
2013-09-19 04:25:00,80.9,77.0,29.78,East,84,4.0,7.2,88,0.00,,---,0.01,0.00,VWS V14.01,2013-09-19 09:25:00,
2013-09-19 04:28:00,80.9,77.4,29.78,East,84,2.0,5.2,89,0.00,,---,0.01,0.00,VWS V14.01,2013-09-19 09:28:00,
2013-09-19 04:30:00,80.9,77.4,29.78,East,98,3.0,7.2,89,0.00,,---,0.01,0.00,VWS V14.01,2013-09-19 09:30:00,
2013-09-19 04:33:00,80.9,77.4,29.78,East,98,1.0,4.2,89,0.00,,---,0.01,0.00,VWS V14.01,2013-09-19 09:33:00,
2013-09-19 04:35:00,80.9,77.4,29.78,East,98,1.0,4.2,89,0.00,,---,0.01,0.00,VWS V14.01,2013-09-19 09:35:00,
2013-09-19 04:38:00,80.9,77.4,29.78,East,98,1.0,6.2,89,0.00,,---,0.01,0.00,VWS V14.01,2013-09-19 09:38:00,
2013-09-19 04:40:00,80.9,77.4,29.78,East,98,0.0,6.2,89,0.00,,---,0.01,0.00,VWS V14.01,2013-09-19 09:40:00,
2013-09-19 04:43:00,80.9,77.4,29.78,East,98,2.0,5.2,89,0.00,,---,0.01,0.00,VWS V14.01,2013-09-19 09:43:00,
2013-09-19 04:45:00,80.9,77.7,29.78,East,98,1.0,5.2,90,0.00,,---,0.01,0.00,VWS V14.01,2013-09-19 09:45:00,
2013-09-19 04:48:00,80.9,77.7,29.78,East,98,0.0,4.2,90,0.00,,---,0.01,0.00,VWS V14.01,2013-09-19 09:48:00,
2013-09-19 04:50:00,80.9,77.7,29.78,East,98,2.0,5.2,90,0.00,,---,0.01,0.00,VWS V14.01,2013-09-19 09:50:00,
2013-09-19 04:53:00,80.9,77.7,29.78,East,98,3.0,5.2,90,0.00,,---,0.01,0.00,VWS V14.01,2013-09-19 09:53:00,
2013-09-19 04:55:00,80.9,77.7,29.78,East,98,3.0,6.2,90,0.00,,---,0.01,0.00,VWS V14.01,2013-09-19 09:55:00,
2013-09-19 04:58:00,81.1,77.9,29.78,East,98,2.0,6.2,90,0.00,,---,0.01,0.00,VWS V14.01,2013-09-19 09:58:00,
2013-09-19 05:00:00,81.2,77.7,29.78,East,98,1.0,6.2,89,0.00,,---,0.01,0.00,VWS V14.01,2013-09-19 10:00:00,
2013-09-19 05:03:00,81.4,77.5,29.78,East,98,0.0,2.2,88,0.00,,---,0.01,0.00,VWS V14.01,2013-09-19 10:03:00,
2013-09-19 05:05:00,81.4,77.5,29.78,East,98,2.0,4.2,88,0.00,,---,0.01,0.00,VWS V14.01,2013-09-19 10:05:00,
2013-09-19 05:08:00,81.6,77.4,29.78,East,98,2.0,4.2,87,0.00,,---,0.01,0.00,VWS V14.01,2013-09-19 10:08:00,
2013-09-19 05:10:00,81.8,77.6,29.78,East,98,0.0,4.2,87,0.00,,---,0.01,0.00,VWS V14.01,2013-09-19 10:10:00,
2013-09-19 05:13:00,81.8,77.2,29.78,East,98,0.0,3.2,86,0.00,,---,0.01,0.00,VWS V14.01,2013-09-19 10:13:00,
2013-09-19 05:15:00,82.0,77.4,29.78,East,98,0.0,4.2,86,0.00,,---,0.01,0.00,VWS V14.01,2013-09-19 10:15:00,
2013-09-19 05:18:00,82.0,77.4,29.78,East,98,0.0,3.2,86,0.00,,---,0.01,0.00,VWS V14.01,2013-09-19 10:18:00,
2013-09-19 05:20:00,81.8,77.2,29.78,East,98,0.0,3.2,86,0.00,,---,0.01,0.00,VWS V14.01,2013-09-19 10:20:00,
2013-09-19 05:23:00,81.6,77.4,29.78,East,98,0.0,1.2,87,0.00,,---,0.01,0.00,VWS V14.01,2013-09-19 10:23:00,
2013-09-19 05:25:00,81.4,77.5,29.78,East,98,1.0,3.2,88,0.00,,---,0.01,0.00,VWS V14.01,2013-09-19 10:25:00,
2013-09-19 05:28:00,81.2,77.3,29.78,East,98,1.0,2.2,88,0.00,,---,0.01,0.00,VWS V14.01,2013-09-19 10:28:00,
2013-09-19 05:30:00,81.1,77.2,29.78,East,98,2.0,4.2,88,0.00,,---,0.01,0.00,VWS V14.01,2013-09-19 10:30:00,
2013-09-19 05:33:00,80.9,77.0,29.78,East,98,3.0,4.2,88,0.00,,---,0.01,0.00,VWS V14.01,2013-09-19 10:33:00,
2013-09-19 05:35:00,80.9,77.4,29.78,East,98,2.0,4.2,89,0.00,,---,0.01,0.00,VWS V14.01,2013-09-19 10:35:00,
2013-09-19 05:38:00,80.7,77.2,29.78,East,98,2.0,5.2,89,0.00,,---,0.01,0.00,VWS V14.01,2013-09-19 10:38:00,
2013-09-19 05:40:00,80.7,77.5,29.78,East,98,0.0,5.2,90,0.00,,---,0.01,0.00,VWS V14.01,2013-09-19 10:40:00,
2013-09-19 05:43:00,80.5,77.3,29.78,East,98,0.0,1.2,90,0.00,,---,0.01,0.00,VWS V14.01,2013-09-19 10:43:00,
2013-09-19 05:45:00,80.5,77.3,29.79,East,98,0.0,3.2,90,0.00,,---,0.01,0.00,VWS V14.01,2013-09-19 10:45:00,
2013-09-19 05:48:00,80.5,77.3,29.79,East,98,1.0,3.2,90,0.00,,---,0.01,0.00,VWS V14.01,2013-09-19 10:48:00,
2013-09-19 05:50:00,80.5,77.6,29.79,East,98,1.0,4.2,91,0.00,,---,0.01,0.00,VWS V14.01,2013-09-19 10:50:00,
2013-09-19 05:53:00,80.5,77.3,29.79,East,98,0.0,2.2,90,0.00,,---,0.01,0.00,VWS V14.01,2013-09-19 10:53:00,
2013-09-19 05:55:00,80.5,77.3,29.79,East,98,0.0,2.2,90,0.00,,---,0.01,0.00,VWS V14.01,2013-09-19 10:55:00,
2013-09-19 05:58:00,80.5,77.3,29.79,East,98,0.0,1.2,90,0.00,,---,0.01,0.00,VWS V14.01,2013-09-19 10:58:00,
2013-09-19 06:00:00,80.3,77.1,29.78,East,98,0.0,3.2,90,0.00,,---,0.01,0.00,VWS V14.01,2013-09-19 11:00:00,
2013-09-19 06:03:00,80.3,77.1,29.78,East,98,0.0,2.2,90,0.00,,---,0.01,0.00,VWS V14.01,2013-09-19 11:03:00,
2013-09-19 06:05:00,80.3,77.1,29.78,East,98,2.0,3.2,90,0.00,,---,0.01,0.00,VWS V14.01,2013-09-19 11:05:00,
2013-09-19 06:08:00,80.3,77.1,29.78,East,98,2.0,4.2,90,0.00,,---,0.01,0.00,VWS V14.01,2013-09-19 11:08:00,
2013-09-19 06:10:00,80.3,77.4,29.78,East,98,1.0,4.2,91,0.00,,---,0.01,0.00,VWS V14.01,2013-09-19 11:10:00,
2013-09-19 06:13:00,80.3,77.4,29.78,East,98,0.0,2.2,91,0.00,,---,0.01,0.00,VWS V14.01,2013-09-19 11:13:00,
2013-09-19 06:15:00,80.3,77.4,29.78,East,98,2.0,5.2,91,0.00,,---,0.01,0.00,VWS V14.01,2013-09-19 11:15:00,
2013-09-19 06:18:00,80.3,77.4,29.78,East,98,1.0,4.2,91,0.00,,---,0.01,0.00,VWS V14.01,2013-09-19 11:18:00,
2013-09-19 06:20:00,80.3,77.4,29.78,East,98,2.0,4.2,91,0.00,,---,0.01,0.00,VWS V14.01,2013-09-19 11:20:00,
2013-09-19 06:23:00,80.3,77.4,29.78,East,98,2.0,4.2,91,0.00,,---,0.01,0.00,VWS V14.01,2013-09-19 11:23:00,
2013-09-19 06:25:00,80.5,77.6,29.78,East,98,0.0,4.2,91,0.00,,---,0.01,0.00,VWS V14.01,2013-09-19 11:25:00,
2013-09-19 06:28:00,80.5,77.6,29.78,East,98,0.0,5.2,91,0.00,,---,0.01,0.00,VWS V14.01,2013-09-19 11:28:00,
2013-09-19 06:30:00,80.7,77.5,29.79,East,98,0.0,5.2,90,0.00,,---,0.01,0.00,VWS V14.01,2013-09-19 11:30:00,
2013-09-19 06:33:00,80.9,77.7,29.79,East,98,1.0,5.2,90,0.00,,---,0.01,0.00,VWS V14.01,2013-09-19 11:33:00,
2013-09-19 06:35:00,81.2,77.7,29.79,East,98,0.0,5.2,89,0.00,,---,0.01,0.00,VWS V14.01,2013-09-19 11:35:00,
2013-09-19 06:38:00,81.2,77.7,29.79,East,98,0.0,3.2,89,0.00,,---,0.01,0.00,VWS V14.01,2013-09-19 11:38:00,
2013-09-19 06:40:00,81.4,77.5,29.79,East,98,2.0,3.2,88,0.00,,---,0.01,0.00,VWS V14.01,2013-09-19 11:40:00,
2013-09-19 06:43:00,81.4,77.5,29.79,East,98,0.0,4.2,88,0.00,,---,0.01,0.00,VWS V14.01,2013-09-19 11:43:00,
2013-09-19 06:45:00,81.2,77.3,29.79,East,98,0.0,4.2,88,0.00,,---,0.01,0.00,VWS V14.01,2013-09-19 11:45:00,
2013-09-19 06:48:00,81.2,77.3,29.79,East,98,0.0,4.2,88,0.00,,---,0.01,0.00,VWS V14.01,2013-09-19 11:48:00,
2013-09-19 06:50:00,81.1,77.6,29.79,East,98,0.0,4.2,89,0.00,,---,0.01,0.00,VWS V14.01,2013-09-19 11:50:00,
2013-09-19 06:53:00,80.9,77.4,29.79,East,98,0.0,2.2,89,0.00,,---,0.01,0.00,VWS V14.01,2013-09-19 11:53:00,
2013-09-19 06:55:00,80.9,77.4,29.79,East,98,0.0,3.2,89,0.00,,---,0.01,0.00,VWS V14.01,2013-09-19 11:55:00,
2013-09-19 06:58:00,80.7,77.2,29.79,East,98,0.0,1.2,89,0.00,,---,0.01,0.00,VWS V14.01,2013-09-19 11:58:00,
2013-09-19 07:00:00,80.7,77.2,29.79,East,98,0.0,2.2,89,0.00,,---,0.01,0.00,VWS V14.01,2013-09-19 12:00:00,
2013-09-19 07:03:00,80.7,77.2,29.79,East,98,0.0,2.2,89,0.00,,---,0.01,0.00,VWS V14.01,2013-09-19 12:03:00,
2013-09-19 07:05:00,80.5,77.0,29.79,East,98,0.0,4.2,89,0.00,,---,0.01,0.00,VWS V14.01,2013-09-19 12:05:00,
2013-09-19 07:08:00,80.5,77.0,29.79,East,98,0.0,2.2,89,0.00,,---,0.01,0.00,VWS V14.01,2013-09-19 12:08:00,
2013-09-19 07:10:00,80.5,77.3,29.79,East,98,0.0,2.2,90,0.00,,---,0.01,0.00,VWS V14.01,2013-09-19 12:10:00,
2013-09-19 07:13:00,80.5,77.3,29.79,East,98,0.0,1.2,90,0.00,,---,0.01,0.00,VWS V14.01,2013-09-19 12:13:00,
2013-09-19 07:15:00,80.5,77.3,29.80,East,98,1.0,3.2,90,0.00,,---,0.01,0.00,VWS V14.01,2013-09-19 12:15:00,
2013-09-19 07:18:00,80.5,77.3,29.80,East,98,0.0,2.2,90,0.00,,---,0.01,0.00,VWS V14.01,2013-09-19 12:18:00,
2013-09-19 07:20:00,80.5,77.3,29.80,East,98,0.0,2.2,90,0.00,,---,0.01,7.00,VWS V14.01,2013-09-19 12:20:00,
2013-09-19 07:23:00,80.5,77.3,29.80,East,98,1.0,2.2,90,0.00,,---,0.01,9.00,VWS V14.01,2013-09-19 12:23:00,
2013-09-19 07:25:00,80.5,77.0,29.80,East,98,0.0,2.2,89,0.00,,---,0.01,16.00,VWS V14.01,2013-09-19 12:25:00,
2013-09-19 07:28:00,80.5,77.0,29.80,East,98,0.0,1.2,89,0.00,,---,0.01,18.00,VWS V14.01,2013-09-19 12:28:00,
2013-09-19 07:30:00,80.5,77.3,29.80,East,98,0.0,2.2,90,0.00,,---,0.01,26.00,VWS V14.01,2013-09-19 12:30:00,
2013-09-19 07:33:00,80.5,77.3,29.80,East,98,0.0,1.2,90,0.00,,---,0.01,28.00,VWS V14.01,2013-09-19 12:33:00,
2013-09-19 07:35:00,80.7,77.5,29.80,East,98,0.0,1.2,90,0.00,,---,0.01,25.00,VWS V14.01,2013-09-19 12:35:00,
2013-09-19 07:38:00,80.7,77.5,29.80,East,98,0.0,1.2,90,0.00,,---,0.01,32.00,VWS V14.01,2013-09-19 12:38:00,
2013-09-19 07:40:00,80.9,77.7,29.80,East,98,0.0,2.2,90,0.00,,---,0.01,28.00,VWS V14.01,2013-09-19 12:40:00,
2013-09-19 07:43:00,80.9,77.7,29.80,East,98,0.0,1.2,90,0.00,,---,0.01,26.00,VWS V14.01,2013-09-19 12:43:00,
2013-09-19 07:45:00,81.1,77.9,29.80,East,98,0.0,2.2,90,0.00,,---,0.01,25.00,VWS V14.01,2013-09-19 12:45:00,
2013-09-19 07:48:00,81.2,78.0,29.80,East,98,2.0,3.2,90,0.00,,---,0.01,23.00,VWS V14.01,2013-09-19 12:48:00,
2013-09-19 07:50:00,81.6,78.4,29.80,East,98,0.0,3.2,90,0.00,,---,0.01,25.00,VWS V14.01,2013-09-19 12:50:00,
2013-09-19 07:53:00,81.6,78.1,29.80,East,98,0.0,3.2,89,0.00,,---,0.01,26.00,VWS V14.01,2013-09-19 12:53:00,
2013-09-19 07:55:00,82.0,78.4,29.80,East,98,0.0,3.2,89,0.00,,---,0.01,28.00,VWS V14.01,2013-09-19 12:55:00,
2013-09-19 07:58:00,82.2,78.3,29.80,East,98,1.0,3.2,88,0.00,,---,0.01,33.00,VWS V14.01,2013-09-19 12:58:00,
2013-09-19 08:00:00,82.2,78.3,29.80,East,98,0.0,3.2,88,0.00,,---,0.01,46.00,VWS V14.01,2013-09-19 13:00:00,
2013-09-19 08:02:00,82.2,78.3,29.80,East,98,1.0,3.2,88,0.00,,---,0.01,79.00,VWS V14.01,2013-09-19 13:02:00,
2013-09-19 08:05:00,82.6,78.7,29.80,East,98,1.0,3.2,88,0.00,,---,0.01,91.00,VWS V14.01,2013-09-19 13:05:00,
2013-09-19 08:07:00,82.8,78.9,29.80,East,98,2.0,5.2,88,0.00,,---,0.01,97.00,VWS V14.01,2013-09-19 13:07:00,
2013-09-19 08:10:00,83.2,79.3,29.80,East,98,3.0,5.2,88,0.00,,---,0.01,107.00,VWS V14.01,2013-09-19 13:10:00,
2013-09-19 08:13:00,83.4,79.1,29.80,East,98,3.0,4.2,87,0.00,,---,0.01,113.00,VWS V14.01,2013-09-19 13:13:00,
2013-09-19 08:15:00,83.4,79.1,29.81,East,98,1.0,5.2,87,0.00,,---,0.01,127.00,VWS V14.01,2013-09-19 13:15:00,
2013-09-19 08:18:00,83.6,79.3,29.81,East,98,1.0,3.2,87,0.00,,---,0.01,114.00,VWS V14.01,2013-09-19 13:18:00,
2013-09-19 08:20:00,83.6,79.0,29.81,East,98,3.0,5.2,86,0.00,,---,0.01,146.00,VWS V14.01,2013-09-19 13:20:00,
2013-09-19 08:23:00,83.6,79.0,29.81,East,98,2.0,4.2,86,0.00,,---,0.01,155.00,VWS V14.01,2013-09-19 13:23:00,
2013-09-19 08:25:00,83.8,79.2,29.81,East,98,5.0,6.2,86,0.00,,---,0.01,169.00,VWS V14.01,2013-09-19 13:25:00,
2013-09-19 08:28:00,83.8,79.2,29.81,East,98,0.0,6.2,86,0.00,,---,0.01,176.00,VWS V14.01,2013-09-19 13:28:00,
2013-09-19 08:30:00,83.8,78.8,29.81,East,80,2.0,8.2,85,0.00,,---,0.01,195.00,VWS V14.01,2013-09-19 13:30:00,
2013-09-19 08:33:00,83.8,78.8,29.81,East,80,0.0,5.2,85,0.00,,---,0.01,197.00,VWS V14.01,2013-09-19 13:33:00,
2013-09-19 08:35:00,84.0,79.4,29.81,East,80,3.0,6.2,86,0.00,,---,0.01,214.00,VWS V14.01,2013-09-19 13:35:00,
2013-09-19 08:37:00,84.0,79.0,29.81,East,80,4.0,6.2,85,0.00,,---,0.01,192.00,VWS V14.01,2013-09-19 13:37:00,
2013-09-19 08:40:00,84.1,79.1,29.81,East,80,4.0,6.2,85,0.00,,---,0.01,229.00,VWS V14.01,2013-09-19 13:40:00,
2013-09-19 08:42:00,84.1,78.8,29.81,East,82,4.0,7.2,84,0.00,,---,0.01,234.00,VWS V14.01,2013-09-19 13:42:00,
2013-09-19 08:45:00,84.1,78.8,29.81,East,82,3.0,7.2,84,0.00,,---,0.01,250.00,VWS V14.01,2013-09-19 13:45:00,
2013-09-19 08:47:00,84.3,78.9,29.81,East,82,3.0,5.2,84,0.00,,---,0.01,253.00,VWS V14.01,2013-09-19 13:47:00,
2013-09-19 08:50:00,84.3,78.2,29.81,East,94,4.0,8.2,82,0.00,,---,0.01,265.00,VWS V14.01,2013-09-19 13:50:00,
2013-09-19 08:52:00,84.5,78.4,29.81,East,94,4.0,5.2,82,0.00,,---,0.01,269.00,VWS V14.01,2013-09-19 13:52:00,
2013-09-19 08:55:00,84.7,78.6,29.81,East,94,1.0,6.2,82,0.00,,---,0.01,279.00,VWS V14.01,2013-09-19 13:55:00,
2013-09-19 08:57:00,84.9,79.2,29.81,East,94,5.0,6.2,83,0.00,,---,0.01,287.00,VWS V14.01,2013-09-19 13:57:00,
2013-09-19 09:00:00,85.9,79.4,29.82,East,81,7.0,8.2,81,0.00,,---,0.01,306.00,VWS V14.01,2013-09-19 14:00:00,
2013-09-19 09:02:00,86.1,79.2,29.82,East,81,4.0,8.2,80,0.00,,---,0.01,325.00,VWS V14.01,2013-09-19 14:02:00,
2013-09-19 09:05:00,86.3,79.4,29.82,East,82,3.0,8.2,80,0.00,,---,0.01,341.00,VWS V14.01,2013-09-19 14:05:00,
2013-09-19 09:07:00,86.3,78.6,29.82,East,101,6.0,7.2,78,0.00,,---,0.01,341.00,VWS V14.01,2013-09-19 14:07:00,
2013-09-19 09:10:00,86.1,78.8,29.82,ESE,106,4.0,8.2,79,0.00,,---,0.01,367.00,VWS V14.01,2013-09-19 14:10:00,
2013-09-19 09:12:00,85.9,78.2,29.82,ESE,107,6.0,7.2,78,0.00,,---,0.01,360.00,VWS V14.01,2013-09-19 14:12:00,
2013-09-19 09:15:00,85.7,77.7,29.82,East,91,3.0,8.2,77,0.00,,---,0.01,362.00,VWS V14.01,2013-09-19 14:15:00,
2013-09-19 09:17:00,85.7,78.1,29.82,East,90,5.0,10.2,78,0.00,,---,0.01,366.00,VWS V14.01,2013-09-19 14:17:00,
2013-09-19 09:20:00,85.5,77.9,29.82,East,90,5.0,10.2,78,0.00,,---,0.01,385.00,VWS V14.01,2013-09-19 14:20:00,
2013-09-19 09:22:00,85.7,78.1,29.82,East,90,4.0,7.2,78,0.00,,---,0.01,390.00,VWS V14.01,2013-09-19 14:22:00,
2013-09-19 09:25:00,85.7,78.4,29.82,East,98,7.0,10.2,79,0.00,,---,0.01,406.00,VWS V14.01,2013-09-19 14:25:00,
2013-09-19 09:27:00,85.7,78.1,29.82,East,96,9.0,10.2,78,0.00,,---,0.01,90.00,VWS V14.01,2013-09-19 14:27:00,
2013-09-19 09:30:00,85.3,78.1,29.82,East,96,3.0,10.2,79,0.00,,---,0.01,408.00,VWS V14.01,2013-09-19 14:30:00,
2013-09-19 09:32:00,85.1,77.9,29.82,East,97,2.0,7.2,79,0.00,,---,0.01,93.00,VWS V14.01,2013-09-19 14:32:00,
2013-09-19 09:35:00,85.1,78.2,29.82,East,97,5.0,7.2,80,0.00,,---,0.01,146.00,VWS V14.01,2013-09-19 14:35:00,
2013-09-19 09:37:00,85.1,78.2,29.82,East,99,4.0,9.2,80,0.00,,---,0.01,146.00,VWS V14.01,2013-09-19 14:37:00,
2013-09-19 09:40:00,85.5,79.0,29.82,East,85,5.0,9.2,81,0.00,,---,0.01,455.00,VWS V14.01,2013-09-19 14:40:00,
2013-09-19 09:42:00,85.5,78.2,29.82,ENE,75,4.0,10.2,79,0.00,,---,0.01,455.00,VWS V14.01,2013-09-19 14:42:00,
2013-09-19 09:45:00,85.7,78.8,29.83,East,81,2.0,10.2,80,0.00,,---,0.01,483.00,VWS V14.01,2013-09-19 14:45:00,
2013-09-19 09:47:00,86.1,78.8,29.82,East,80,3.0,7.2,79,0.00,,---,0.01,483.00,VWS V14.01,2013-09-19 14:47:00,
2013-09-19 09:50:00,86.7,78.2,29.83,East,90,4.0,10.2,76,0.00,,---,0.01,86.00,VWS V14.01,2013-09-19 14:50:00,
2013-09-19 09:52:00,86.7,78.2,29.82,East,90,3.0,6.2,76,0.00,,---,0.01,526.00,VWS V14.01,2013-09-19 14:52:00,
2013-09-19 09:55:00,86.7,78.6,29.83,East,86,5.0,8.2,77,0.00,,---,0.01,529.00,VWS V14.01,2013-09-19 14:55:00,
2013-09-19 09:57:00,86.5,77.6,29.82,East,96,6.0,10.2,75,0.00,,---,0.01,529.00,VWS V14.01,2013-09-19 14:57:00,
2013-09-19 10:00:00,86.7,78.6,29.83,East,92,2.0,10.2,77,0.00,,---,0.01,538.00,VWS V14.01,2013-09-19 15:00:00,
2013-09-19 10:02:00,87.0,79.3,29.83,East,85,5.0,10.2,78,0.00,,---,0.01,538.00,VWS V14.01,2013-09-19 15:02:00,
2013-09-19 10:05:00,86.7,78.6,29.83,East,90,9.0,10.2,77,0.00,,---,0.01,582.00,VWS V14.01,2013-09-19 15:05:00,
2013-09-19 10:07:00,86.5,78.8,29.83,East,91,6.0,10.2,78,0.00,,---,0.01,582.00,VWS V14.01,2013-09-19 15:07:00,
2013-09-19 10:10:00,86.7,79.0,29.83,East,90,5.0,10.2,78,0.00,,---,0.01,571.00,VWS V14.01,2013-09-19 15:10:00,
2013-09-19 10:12:00,87.0,79.3,29.83,East,90,9.0,10.2,78,0.00,,---,0.01,571.00,VWS V14.01,2013-09-19 15:12:00,
2013-09-19 10:15:00,87.0,78.9,29.83,East,86,1.0,10.2,77,0.00,,---,0.01,589.00,VWS V14.01,2013-09-19 15:15:00,
2013-09-19 10:17:00,87.2,79.1,29.83,East,86,4.0,5.2,77,0.00,,---,0.01,594.00,VWS V14.01,2013-09-19 15:17:00,
2013-09-19 10:20:00,87.2,78.7,29.83,East,94,6.0,12.2,76,0.00,,---,0.01,603.00,VWS V14.01,2013-09-19 15:20:00,
2013-09-19 10:22:00,87.2,78.7,29.83,ESE,108,6.0,8.2,76,0.00,,---,0.01,624.00,VWS V14.01,2013-09-19 15:22:00,
2013-09-19 10:25:00,87.0,78.5,29.83,ENE,71,9.0,12.2,76,0.00,,---,0.01,629.00,VWS V14.01,2013-09-19 15:25:00,
2013-09-19 10:27:00,87.0,78.5,29.83,East,98,10.0,11.2,76,0.00,,---,0.01,643.00,VWS V14.01,2013-09-19 15:27:00,
2013-09-19 10:30:00,87.0,78.9,29.83,East,80,7.0,12.2,77,0.00,,---,0.01,652.00,VWS V14.01,2013-09-19 15:30:00,
2013-09-19 10:32:00,87.0,78.9,29.83,East,90,3.0,10.2,77,0.00,,---,0.01,654.00,VWS V14.01,2013-09-19 15:32:00,
2013-09-19 10:35:00,87.2,78.7,29.83,East,95,3.0,10.2,76,0.00,,---,0.01,629.00,VWS V14.01,2013-09-19 15:35:00,
2013-09-19 10:37:00,87.2,78.7,29.83,ESE,111,10.0,11.2,76,0.00,,---,0.01,631.00,VWS V14.01,2013-09-19 15:37:00,
2013-09-19 10:40:00,87.4,78.1,29.83,ENE,67,5.0,11.2,74,0.00,,---,0.01,649.00,VWS V14.01,2013-09-19 15:40:00,
2013-09-19 10:42:00,87.4,78.1,29.83,ESE,103,6.0,12.2,74,0.00,,---,0.01,663.00,VWS V14.01,2013-09-19 15:42:00,
2013-09-19 10:45:00,87.6,78.7,29.83,East,90,4.0,12.2,75,0.00,,---,0.01,680.00,VWS V14.01,2013-09-19 15:45:00,
2013-09-19 10:47:00,87.6,79.1,29.83,East,95,7.0,12.2,76,0.00,,---,0.01,664.00,VWS V14.01,2013-09-19 15:47:00,
2013-09-19 10:50:00,87.6,79.5,29.83,NE,53,5.0,12.2,77,0.00,,---,0.01,708.00,VWS V14.01,2013-09-19 15:50:00,
2013-09-19 10:53:00,87.4,78.9,29.83,ENE,74,1.0,8.2,76,0.00,,---,0.01,714.00,VWS V14.01,2013-09-19 15:53:00,
2013-09-19 10:55:00,87.6,79.1,29.83,East,84,3.0,10.2,76,0.00,,---,0.01,738.00,VWS V14.01,2013-09-19 15:55:00,
2013-09-19 10:58:00,87.6,78.7,29.83,East,99,2.0,8.2,75,0.00,,---,0.01,176.00,VWS V14.01,2013-09-19 15:58:00,
2013-09-19 11:00:00,87.2,78.7,29.83,ENE,65,11.0,14.2,76,0.00,,---,0.01,334.00,VWS V14.01,2013-09-19 16:00:00,
2013-09-19 11:03:00,87.2,78.7,29.83,ENE,67,12.0,13.2,76,0.00,,---,0.01,766.00,VWS V14.01,2013-09-19 16:03:00,
2013-09-19 11:05:00,86.3,78.2,29.83,ENE,77,9.0,13.2,77,0.00,,---,0.01,144.00,VWS V14.01,2013-09-19 16:05:00,
2013-09-19 11:08:00,86.3,78.2,29.83,East,87,3.0,10.2,77,0.00,,---,0.01,144.00,VWS V14.01,2013-09-19 16:08:00,
2013-09-19 11:10:00,86.3,78.6,29.83,ENE,73,4.0,11.2,78,0.00,,---,0.01,738.00,VWS V14.01,2013-09-19 16:10:00,
2013-09-19 11:13:00,86.3,78.6,29.83,ESE,109,5.0,11.2,78,0.00,,---,0.01,796.00,VWS V14.01,2013-09-19 16:13:00,
2013-09-19 11:15:00,86.5,78.4,29.83,ESE,104,6.0,11.2,77,0.00,,---,0.01,779.00,VWS V14.01,2013-09-19 16:15:00,
2013-09-19 11:18:00,86.5,78.4,29.82,NE,49,7.0,13.2,77,0.00,,---,0.01,793.00,VWS V14.01,2013-09-19 16:18:00,
2013-09-19 11:20:00,86.7,77.8,29.83,East,95,5.0,13.2,75,0.00,,---,0.01,770.00,VWS V14.01,2013-09-19 16:20:00,
2013-09-19 11:23:00,87.0,78.5,29.82,ENE,69,5.0,12.2,76,0.00,,---,0.01,761.00,VWS V14.01,2013-09-19 16:23:00,
2013-09-19 11:25:00,87.0,77.7,29.83,ESE,115,9.0,12.2,74,0.00,,---,0.01,756.00,VWS V14.01,2013-09-19 16:25:00,
2013-09-19 11:28:00,87.0,78.1,29.82,ESE,103,4.0,12.2,75,0.00,,---,0.01,752.00,VWS V14.01,2013-09-19 16:28:00,
2013-09-19 11:30:00,87.8,78.5,29.83,East,80,5.0,12.2,74,0.00,,---,0.01,758.00,VWS V14.01,2013-09-19 16:30:00,
2013-09-19 11:33:00,88.0,78.7,29.82,ESE,104,7.0,12.2,74,0.00,,---,0.01,765.00,VWS V14.01,2013-09-19 16:33:00,
2013-09-19 11:35:00,87.8,78.5,29.83,ENE,69,4.0,13.2,74,0.00,,---,0.01,775.00,VWS V14.01,2013-09-19 16:35:00,
2013-09-19 11:38:00,87.8,78.5,29.82,ENE,78,3.0,12.2,74,0.00,,---,0.01,784.00,VWS V14.01,2013-09-19 16:38:00,
2013-09-19 11:40:00,88.0,79.1,29.83,ESE,107,7.0,13.2,75,0.00,,---,0.01,838.00,VWS V14.01,2013-09-19 16:40:00,
2013-09-19 11:43:00,88.2,78.9,29.82,East,80,2.0,12.2,74,0.00,,---,0.01,849.00,VWS V14.01,2013-09-19 16:43:00,
2013-09-19 11:45:00,88.4,79.1,29.83,East,93,5.0,14.2,74,0.00,,---,0.01,856.00,VWS V14.01,2013-09-19 16:45:00,
2013-09-19 11:48:00,88.4,78.2,29.82,ESE,110,5.0,14.2,72,0.00,,---,0.01,816.00,VWS V14.01,2013-09-19 16:48:00,
2013-09-19 11:50:00,88.4,79.1,29.83,NNE,19,4.0,14.2,74,0.00,,---,0.01,882.00,VWS V14.01,2013-09-19 16:50:00,
2013-09-19 11:53:00,88.6,78.8,29.82,East,82,7.0,10.2,73,0.00,,---,0.01,865.00,VWS V14.01,2013-09-19 16:53:00,
2013-09-19 11:55:00,88.6,78.8,29.83,ENE,65,3.0,11.2,73,0.00,,---,0.01,840.00,VWS V14.01,2013-09-19 16:55:00,
2013-09-19 11:58:00,88.4,79.1,29.82,East,82,9.0,12.2,74,0.00,,---,0.01,884.00,VWS V14.01,2013-09-19 16:58:00,
2013-09-19 12:00:00,88.0,79.1,29.82,East,96,7.0,12.2,75,0.00,,---,0.01,830.00,VWS V14.01,2013-09-19 17:00:00,
2013-09-19 12:03:00,87.8,78.9,29.82,NE,53,8.0,10.2,75,0.00,,---,0.01,893.00,VWS V14.01,2013-09-19 17:03:00,
2013-09-19 12:05:00,87.8,78.5,29.82,East,80,4.0,13.2,74,0.00,,---,0.01,220.00,VWS V14.01,2013-09-19 17:05:00,
2013-09-19 12:08:00,87.8,78.9,29.82,ENE,75,7.0,13.2,75,0.00,,---,0.01,1032.00,VWS V14.01,2013-09-19 17:08:00,
2013-09-19 12:10:00,87.8,78.9,29.82,East,82,4.0,13.2,75,0.00,,---,0.01,323.00,VWS V14.01,2013-09-19 17:10:00,
2013-09-19 12:13:00,87.8,78.9,29.82,East,87,7.0,10.2,75,0.00,,---,0.01,323.00,VWS V14.01,2013-09-19 17:13:00,
2013-09-19 12:15:00,87.6,79.1,29.81,ENE,65,7.0,12.2,76,0.00,,---,0.01,991.00,VWS V14.01,2013-09-19 17:15:00,
2013-09-19 12:18:00,87.6,79.1,29.81,ENE,64,5.0,12.2,76,0.00,,---,0.01,972.00,VWS V14.01,2013-09-19 17:18:00,
2013-09-19 12:20:00,87.4,78.9,29.81,East,96,7.0,14.2,76,0.00,,---,0.01,863.00,VWS V14.01,2013-09-19 17:20:00,
2013-09-19 12:23:00,87.8,79.3,29.81,East,93,3.0,11.2,76,0.00,,---,0.01,858.00,VWS V14.01,2013-09-19 17:23:00,
2013-09-19 12:25:00,88.0,79.1,29.81,ENE,59,6.0,14.2,75,0.00,,---,0.01,849.00,VWS V14.01,2013-09-19 17:25:00,
2013-09-19 12:28:00,88.0,78.7,29.81,ENE,74,6.0,13.2,74,0.00,,---,0.01,854.00,VWS V14.01,2013-09-19 17:28:00,
2013-09-19 12:30:00,87.8,78.5,29.81,ENE,76,13.0,14.2,74,0.00,,---,0.01,856.00,VWS V14.01,2013-09-19 17:30:00,
2013-09-19 12:33:00,87.6,78.7,29.81,East,83,8.0,14.2,75,0.00,,---,0.01,860.00,VWS V14.01,2013-09-19 17:33:00,
2013-09-19 12:35:00,88.0,78.7,29.81,ESE,103,9.0,14.2,74,0.00,,---,0.01,863.00,VWS V14.01,2013-09-19 17:35:00,
2013-09-19 12:38:00,88.2,79.3,29.81,NE,53,7.0,11.2,75,0.00,,---,0.01,872.00,VWS V14.01,2013-09-19 17:38:00,
2013-09-19 12:40:00,88.4,79.1,29.81,East,101,6.0,13.2,74,0.00,,---,0.01,886.00,VWS V14.01,2013-09-19 17:40:00,
2013-09-19 12:43:00,88.6,78.8,29.81,ENE,69,10.0,14.2,73,0.00,,---,0.01,882.00,VWS V14.01,2013-09-19 17:43:00,
2013-09-19 12:45:00,88.6,79.7,29.81,ENE,71,5.0,14.2,75,0.00,,---,0.01,912.00,VWS V14.01,2013-09-19 17:45:00,
2013-09-19 12:48:00,88.4,79.1,29.81,East,79,6.0,13.2,74,0.00,,---,0.01,863.00,VWS V14.01,2013-09-19 17:48:00,
2013-09-19 12:50:00,88.0,78.7,29.81,East,97,6.0,14.2,74,0.00,,---,0.01,870.00,VWS V14.01,2013-09-19 17:50:00,
2013-09-19 12:53:00,88.0,78.7,29.81,ESE,116,9.0,12.2,74,0.00,,---,0.01,918.00,VWS V14.01,2013-09-19 17:53:00,
2013-09-19 12:55:00,88.0,78.7,29.81,ESE,104,8.0,13.2,74,0.00,,---,0.01,905.00,VWS V14.01,2013-09-19 17:55:00,
2013-09-19 12:58:00,87.8,78.9,29.81,ESE,109,7.0,13.2,75,0.00,,---,0.01,911.00,VWS V14.01,2013-09-19 17:58:00,
2013-09-19 13:00:00,88.4,78.7,29.81,ESE,105,7.0,13.2,73,0.00,,---,0.01,926.00,VWS V14.01,2013-09-19 18:00:00,
2013-09-19 13:03:00,88.4,78.7,29.81,East,98,5.0,12.2,73,0.00,,---,0.01,969.00,VWS V14.01,2013-09-19 18:03:00,
2013-09-19 13:05:00,88.6,79.2,29.81,ENE,72,9.0,14.2,74,0.00,,---,0.01,962.00,VWS V14.01,2013-09-19 18:05:00,
2013-09-19 13:08:00,88.4,79.1,29.81,East,87,13.0,14.2,74,0.00,,---,0.01,946.00,VWS V14.01,2013-09-19 18:08:00,
2013-09-19 13:10:00,88.0,79.1,29.81,East,82,10.0,15.2,75,0.00,,---,0.01,1002.00,VWS V14.01,2013-09-19 18:10:00,
2013-09-19 13:13:00,88.2,78.9,29.81,East,88,7.0,12.2,74,0.00,,---,0.01,1002.00,VWS V14.01,2013-09-19 18:13:00,
2013-09-19 13:15:00,88.6,78.8,29.80,East,92,7.0,13.2,73,0.00,,---,0.01,265.00,VWS V14.01,2013-09-19 18:15:00,
2013-09-19 13:18:00,88.6,78.8,29.80,East,82,14.0,15.2,73,0.00,,---,0.01,265.00,VWS V14.01,2013-09-19 18:18:00,
2013-09-19 13:20:00,88.2,79.3,29.80,ENE,71,6.0,15.2,75,0.00,,---,0.01,265.00,VWS V14.01,2013-09-19 18:20:00,
2013-09-19 13:23:00,88.0,79.1,29.80,ENE,71,4.0,10.2,75,0.00,,---,0.01,346.00,VWS V14.01,2013-09-19 18:23:00,
2013-09-19 13:25:00,87.4,78.9,29.80,East,88,4.0,12.2,76,0.00,,---,0.01,313.00,VWS V14.01,2013-09-19 18:25:00,
2013-09-19 13:28:00,87.4,79.3,29.80,ESE,123,3.0,8.2,77,0.00,,---,0.01,236.00,VWS V14.01,2013-09-19 18:28:00,
2013-09-19 13:30:00,87.2,79.1,29.80,ESE,114,10.0,11.2,77,0.00,,---,0.01,237.00,VWS V14.01,2013-09-19 18:30:00,
2013-09-19 13:33:00,87.0,78.5,29.80,ENE,78,7.0,11.2,76,0.00,,---,0.01,216.00,VWS V14.01,2013-09-19 18:33:00,
2013-09-19 13:35:00,86.7,79.0,29.80,NE,44,4.0,12.2,78,0.00,,---,0.01,239.00,VWS V14.01,2013-09-19 18:35:00,
2013-09-19 13:38:00,86.7,79.0,29.80,ESE,109,8.0,13.2,78,0.00,,---,0.01,239.00,VWS V14.01,2013-09-19 18:38:00,
2013-09-19 13:40:00,87.4,79.3,29.80,ENE,69,12.0,13.2,77,0.00,,---,0.01,965.00,VWS V14.01,2013-09-19 18:40:00,
2013-09-19 13:42:00,87.4,78.9,29.80,East,92,5.0,13.2,76,0.00,,---,0.01,213.00,VWS V14.01,2013-09-19 18:42:00,
2013-09-19 13:45:00,88.0,79.9,29.79,East,86,7.0,13.2,77,0.00,,---,0.01,1035.00,VWS V14.01,2013-09-19 18:45:00,
2013-09-19 13:47:00,88.2,78.9,29.79,East,82,10.0,14.2,74,0.00,,---,0.01,1035.00,VWS V14.01,2013-09-19 18:47:00,
2013-09-19 13:50:00,87.8,79.3,29.79,East,81,10.0,14.2,76,0.00,,---,0.01,863.00,VWS V14.01,2013-09-19 18:50:00,
2013-09-19 13:52:00,87.8,79.3,29.79,NE,54,10.0,11.2,76,0.00,,---,0.01,904.00,VWS V14.01,2013-09-19 18:52:00,
2013-09-19 13:55:00,87.6,79.1,29.79,East,94,5.0,12.2,76,0.00,,---,0.01,877.00,VWS V14.01,2013-09-19 18:55:00,
2013-09-19 13:57:00,88.0,79.5,29.79,East,93,11.0,12.2,76,0.00,,---,0.01,877.00,VWS V14.01,2013-09-19 18:57:00,
2013-09-19 14:00:00,88.6,78.8,29.79,East,96,7.0,13.2,73,0.00,,---,0.01,902.00,VWS V14.01,2013-09-19 19:00:00,
2013-09-19 14:02:00,88.4,78.7,29.79,East,87,10.0,12.2,73,0.00,,---,0.01,889.00,VWS V14.01,2013-09-19 19:02:00,
2013-09-19 14:05:00,88.8,79.9,29.79,ENE,59,7.0,14.2,75,0.00,,---,0.01,891.00,VWS V14.01,2013-09-19 19:05:00,
2013-09-19 14:07:00,88.6,78.8,29.79,ENE,68,4.0,12.2,73,0.00,,---,0.01,891.00,VWS V14.01,2013-09-19 19:07:00,
2013-09-19 14:10:00,89.0,78.8,29.79,ENE,67,6.0,13.2,72,0.00,,---,0.01,874.00,VWS V14.01,2013-09-19 19:10:00,
2013-09-19 14:12:00,89.3,79.1,29.79,SE,126,10.0,11.2,72,0.00,,---,0.01,877.00,VWS V14.01,2013-09-19 19:12:00,
2013-09-19 14:15:00,89.3,79.1,29.78,East,99,11.0,14.2,72,0.00,,---,0.01,905.00,VWS V14.01,2013-09-19 19:15:00,
2013-09-19 14:17:00,89.0,78.4,29.78,ESE,103,9.0,13.2,71,0.00,,---,0.01,874.00,VWS V14.01,2013-09-19 19:17:00,
2013-09-19 14:20:00,88.6,79.2,29.78,ENE,76,6.0,14.2,74,0.00,,---,0.01,902.00,VWS V14.01,2013-09-19 19:20:00,
2013-09-19 14:22:00,88.2,78.9,29.78,ENE,75,5.0,13.2,74,0.00,,---,0.01,807.00,VWS V14.01,2013-09-19 19:22:00,
2013-09-19 14:25:00,87.6,78.7,29.78,East,86,9.0,14.2,75,0.00,,---,0.01,571.00,VWS V14.01,2013-09-19 19:25:00,
2013-09-19 14:27:00,87.6,79.1,29.78,ESE,109,9.0,10.2,76,0.00,,---,0.01,643.00,VWS V14.01,2013-09-19 19:27:00,
2013-09-19 14:30:00,87.6,78.7,29.78,NE,54,10.0,13.2,75,0.00,,---,0.01,251.00,VWS V14.01,2013-09-19 19:30:00,
2013-09-19 14:32:00,87.4,78.5,29.78,East,96,10.0,12.2,75,0.00,,---,0.01,251.00,VWS V14.01,2013-09-19 19:32:00,
2013-09-19 14:35:00,87.8,78.9,29.78,East,84,5.0,12.2,75,0.00,,---,0.01,926.00,VWS V14.01,2013-09-19 19:35:00,
2013-09-19 14:37:00,88.0,78.7,29.78,ESE,103,10.0,15.2,74,0.00,,---,0.01,882.00,VWS V14.01,2013-09-19 19:37:00,
2013-09-19 14:40:00,88.6,79.2,29.78,East,101,9.0,15.2,74,0.00,,---,0.01,243.00,VWS V14.01,2013-09-19 19:40:00,
2013-09-19 14:42:00,88.8,79.4,29.78,ESE,115,7.0,13.2,74,0.00,,---,0.01,178.00,VWS V14.01,2013-09-19 19:42:00,
2013-09-19 14:45:00,88.2,80.1,29.77,ESE,121,10.0,14.2,77,0.00,,---,0.01,202.00,VWS V14.01,2013-09-19 19:45:00,
2013-09-19 14:47:00,87.6,79.5,29.77,SE,133,7.0,12.2,77,0.00,,---,0.01,251.00,VWS V14.01,2013-09-19 19:47:00,
2013-09-19 14:50:00,86.3,79.4,29.77,ENE,78,6.0,16.2,80,0.00,,---,0.01,308.00,VWS V14.01,2013-09-19 19:50:00,
2013-09-19 14:52:00,85.9,79.0,29.77,SE,126,5.0,8.2,80,0.00,,---,0.01,359.00,VWS V14.01,2013-09-19 19:52:00,
2013-09-19 14:55:00,86.1,79.6,29.77,East,92,10.0,11.2,81,0.00,,---,0.01,504.00,VWS V14.01,2013-09-19 19:55:00,
2013-09-19 14:57:00,86.1,79.2,29.77,East,92,5.0,11.2,80,0.00,,---,0.01,504.00,VWS V14.01,2013-09-19 19:57:00,
2013-09-19 15:00:00,86.3,79.4,29.77,East,89,5.0,11.2,80,0.00,,---,0.01,972.00,VWS V14.01,2013-09-19 20:00:00,
2013-09-19 15:02:00,86.5,80.0,29.77,ENE,76,10.0,12.2,81,0.00,,---,0.01,972.00,VWS V14.01,2013-09-19 20:02:00,
2013-09-19 15:05:00,87.0,79.7,29.77,ESE,103,4.0,12.2,79,0.00,,---,0.01,272.00,VWS V14.01,2013-09-19 20:05:00,
2013-09-19 15:07:00,87.0,78.9,29.77,East,82,11.0,12.2,77,0.00,,---,0.01,350.00,VWS V14.01,2013-09-19 20:07:00,
2013-09-19 15:10:00,87.6,78.7,29.77,East,94,5.0,14.2,75,0.00,,---,0.01,359.00,VWS V14.01,2013-09-19 20:10:00,
2013-09-19 15:12:00,87.6,78.3,29.77,ESE,105,9.0,15.2,74,0.00,,---,0.01,359.00,VWS V14.01,2013-09-19 20:12:00,
2013-09-19 15:15:00,88.2,78.9,29.76,East,87,6.0,15.2,74,0.00,,---,0.01,216.00,VWS V14.01,2013-09-19 20:15:00,
2013-09-19 15:17:00,88.2,78.9,29.76,ESE,103,5.0,9.2,74,0.00,,---,0.01,214.00,VWS V14.01,2013-09-19 20:17:00,
2013-09-19 15:20:00,87.4,78.1,29.76,East,95,10.0,13.2,74,0.00,,---,0.01,207.00,VWS V14.01,2013-09-19 20:20:00,
2013-09-19 15:22:00,87.2,78.3,29.76,East,84,4.0,11.2,75,0.00,,---,0.01,230.00,VWS V14.01,2013-09-19 20:22:00,
2013-09-19 15:25:00,87.0,78.5,29.76,NE,48,6.0,12.2,76,0.00,,---,0.01,183.00,VWS V14.01,2013-09-19 20:25:00,
2013-09-19 15:27:00,86.7,78.2,29.76,ESE,109,7.0,12.2,76,0.00,,---,0.01,165.00,VWS V14.01,2013-09-19 20:27:00,
2013-09-19 15:30:00,86.1,78.4,29.76,ENE,78,7.0,13.2,78,0.00,,---,0.01,148.00,VWS V14.01,2013-09-19 20:30:00,
2013-09-19 15:32:00,85.9,78.2,29.76,SE,126,9.0,13.2,78,0.00,,---,0.01,134.00,VWS V14.01,2013-09-19 20:32:00,
2013-09-19 15:35:00,85.7,78.4,29.76,East,101,10.0,14.2,79,0.00,,---,0.01,127.00,VWS V14.01,2013-09-19 20:35:00,
2013-09-19 15:37:00,85.5,78.2,29.76,ESE,115,11.0,15.2,79,0.00,,---,0.01,169.00,VWS V14.01,2013-09-19 20:37:00,
2013-09-19 15:40:00,85.7,78.4,29.76,East,88,4.0,15.2,79,0.00,,---,0.01,248.00,VWS V14.01,2013-09-19 20:40:00,
2013-09-19 15:42:00,85.9,78.6,29.76,East,101,10.0,11.2,79,0.00,,---,0.01,260.00,VWS V14.01,2013-09-19 20:42:00,
2013-09-19 15:45:00,86.1,78.4,29.75,ENE,74,9.0,14.2,78,0.00,,---,0.01,251.00,VWS V14.01,2013-09-19 20:45:00,
2013-09-19 15:48:00,85.9,78.2,29.75,ENE,68,3.0,14.2,78,0.00,,---,0.01,253.00,VWS V14.01,2013-09-19 20:48:00,
2013-09-19 15:50:00,85.7,78.4,29.75,East,81,9.0,14.2,79,0.00,,---,0.01,244.00,VWS V14.01,2013-09-19 20:50:00,
2013-09-19 15:52:00,85.9,78.6,29.75,ESE,107,7.0,10.2,79,0.00,,---,0.01,246.00,VWS V14.01,2013-09-19 20:52:00,
2013-09-19 15:55:00,85.9,78.6,29.75,East,93,6.0,13.2,79,0.00,,---,0.01,250.00,VWS V14.01,2013-09-19 20:55:00,
2013-09-19 15:57:00,85.9,78.6,29.75,ESE,107,5.0,12.2,79,0.00,,---,0.01,251.00,VWS V14.01,2013-09-19 20:57:00,
2013-09-19 16:00:00,85.9,78.2,29.75,East,89,7.0,12.2,78,0.00,,---,0.01,248.00,VWS V14.01,2013-09-19 21:00:00,
2013-09-19 16:02:00,85.9,78.2,29.75,East,94,5.0,12.2,78,0.00,,---,0.01,241.00,VWS V14.01,2013-09-19 21:02:00,
2013-09-19 16:05:00,85.7,78.1,29.75,ENE,74,6.0,14.2,78,0.00,,---,0.01,255.00,VWS V14.01,2013-09-19 21:05:00,
2013-09-19 16:07:00,85.9,78.2,29.75,East,88,5.0,13.2,78,0.00,,---,0.01,258.00,VWS V14.01,2013-09-19 21:07:00,
2013-09-19 16:10:00,86.5,78.4,29.75,ENE,75,6.0,13.2,77,0.00,,---,0.01,271.00,VWS V14.01,2013-09-19 21:10:00,
2013-09-19 16:12:00,86.7,78.6,29.75,East,80,7.0,10.2,77,0.00,,---,0.01,269.00,VWS V14.01,2013-09-19 21:12:00,
2013-09-19 16:15:00,86.7,78.6,29.75,ESE,105,4.0,12.2,77,0.00,,---,0.01,278.00,VWS V14.01,2013-09-19 21:15:00,
2013-09-19 16:17:00,86.5,78.4,29.75,East,83,6.0,14.2,77,0.00,,---,0.01,276.00,VWS V14.01,2013-09-19 21:17:00,
2013-09-19 16:20:00,86.1,78.1,29.75,ESE,104,9.0,14.2,77,0.00,,---,0.01,276.00,VWS V14.01,2013-09-19 21:20:00,
2013-09-19 16:22:00,86.1,78.8,29.75,ENE,65,7.0,13.2,79,0.00,,---,0.01,288.00,VWS V14.01,2013-09-19 21:22:00,
2013-09-19 16:25:00,86.1,78.8,29.75,ENE,59,6.0,13.2,79,0.00,,---,0.01,508.00,VWS V14.01,2013-09-19 21:25:00,
2013-09-19 16:27:00,86.1,78.8,29.75,ENE,59,4.0,11.2,79,0.00,,---,0.01,768.00,VWS V14.01,2013-09-19 21:27:00,
2013-09-19 16:30:00,86.7,79.0,29.75,NE,51,7.0,12.2,78,0.00,,---,0.01,930.00,VWS V14.01,2013-09-19 21:30:00,
2013-09-19 16:32:00,87.0,78.9,29.75,ENE,63,5.0,13.2,77,0.00,,---,0.01,930.00,VWS V14.01,2013-09-19 21:32:00,
2013-09-19 16:35:00,87.8,79.7,29.75,East,93,9.0,15.2,77,0.00,,---,0.01,904.00,VWS V14.01,2013-09-19 21:35:00,
2013-09-19 16:37:00,88.2,79.7,29.75,ENE,72,3.0,12.2,76,0.00,,---,0.01,904.00,VWS V14.01,2013-09-19 21:37:00,
2013-09-19 16:40:00,88.8,79.9,29.75,ESE,103,11.0,13.2,75,0.00,,---,0.01,712.00,VWS V14.01,2013-09-19 21:40:00,
2013-09-19 16:42:00,88.8,79.4,29.75,East,86,5.0,12.2,74,0.00,,---,0.01,712.00,VWS V14.01,2013-09-19 21:42:00,
2013-09-19 16:45:00,88.4,79.1,29.75,East,96,10.0,14.2,74,0.00,,---,0.01,506.00,VWS V14.01,2013-09-19 21:45:00,
2013-09-19 16:48:00,88.0,78.7,29.75,East,84,7.0,12.2,74,0.00,,---,0.01,320.00,VWS V14.01,2013-09-19 21:48:00,
2013-09-19 16:50:00,87.4,78.9,29.75,ENE,65,6.0,13.2,76,0.00,,---,0.01,411.00,VWS V14.01,2013-09-19 21:50:00,
2013-09-19 16:52:00,87.4,79.3,29.75,East,89,5.0,11.2,77,0.00,,---,0.01,315.00,VWS V14.01,2013-09-19 21:52:00,
2013-09-19 16:55:00,87.2,79.1,29.75,East,99,5.0,13.2,77,0.00,,---,0.01,315.00,VWS V14.01,2013-09-19 21:55:00,
2013-09-19 16:57:00,87.4,79.3,29.75,East,94,6.0,11.2,77,0.00,,---,0.01,223.00,VWS V14.01,2013-09-19 21:57:00,
2013-09-19 17:00:00,86.7,78.2,29.75,East,93,7.0,16.2,76,0.00,,---,0.01,171.00,VWS V14.01,2013-09-19 22:00:00,
2013-09-19 17:02:00,86.7,78.2,29.75,NE,51,9.0,10.2,76,0.00,,---,0.01,163.00,VWS V14.01,2013-09-19 22:02:00,
2013-09-19 17:05:00,87.0,78.9,29.75,East,86,3.0,12.2,77,0.00,,---,0.01,137.00,VWS V14.01,2013-09-19 22:05:00,
2013-09-19 17:07:00,87.2,79.1,29.75,East,92,5.0,11.2,77,0.00,,---,0.01,118.00,VWS V14.01,2013-09-19 22:07:00,
2013-09-19 17:10:00,87.4,78.9,29.75,East,92,5.0,11.2,76,0.00,,---,0.01,98.00,VWS V14.01,2013-09-19 22:10:00,
2013-09-19 17:12:00,87.2,79.1,29.75,ENE,65,4.0,12.2,77,0.00,,---,0.01,83.00,VWS V14.01,2013-09-19 22:12:00,
2013-09-19 17:15:00,85.5,76.7,29.74,East,101,11.0,17.2,75,0.00,,---,0.01,84.00,VWS V14.01,2013-09-19 22:15:00,
2013-09-19 17:17:00,85.1,77.1,29.74,East,83,8.0,16.2,77,0.00,,---,0.01,90.00,VWS V14.01,2013-09-19 22:17:00,
2013-09-19 17:20:00,84.3,77.1,29.74,East,99,9.0,16.2,79,0.00,,---,0.01,91.00,VWS V14.01,2013-09-19 22:20:00,
2013-09-19 17:22:00,84.1,76.9,29.74,East,80,3.0,16.2,79,0.00,,---,0.01,93.00,VWS V14.01,2013-09-19 22:22:00,
2013-09-19 17:25:00,84.0,77.2,29.74,East,98,7.0,16.2,80,0.00,,---,0.01,97.00,VWS V14.01,2013-09-19 22:25:00,
2013-09-19 17:27:00,83.6,77.2,29.74,ENE,65,6.0,8.2,81,0.00,,---,0.01,100.00,VWS V14.01,2013-09-19 22:27:00,
2013-09-19 17:30:00,82.6,77.3,29.74,ENE,71,5.0,10.2,84,0.00,,---,0.01,105.00,VWS V14.01,2013-09-19 22:30:00,
2013-09-19 17:32:00,82.4,77.4,29.74,East,82,4.0,10.2,85,0.00,,---,0.01,113.00,VWS V14.01,2013-09-19 22:32:00,
2013-09-19 17:35:00,82.4,77.8,29.74,ENE,72,9.0,10.2,86,0.00,,---,0.01,144.00,VWS V14.01,2013-09-19 22:35:00,
2013-09-19 17:37:00,82.6,78.3,29.74,ENE,61,5.0,10.2,87,0.00,,---,0.01,162.00,VWS V14.01,2013-09-19 22:37:00,
2013-09-19 17:40:00,82.6,78.7,29.74,NE,55,5.0,12.2,88,0.00,,---,0.01,178.00,VWS V14.01,2013-09-19 22:40:00,
2013-09-19 17:42:00,82.8,79.2,29.74,East,82,2.0,7.2,89,0.00,,---,0.01,190.00,VWS V14.01,2013-09-19 22:42:00,
2013-09-19 17:45:00,83.0,79.4,29.73,East,84,10.0,11.2,89,0.00,,---,0.01,149.00,VWS V14.01,2013-09-19 22:45:00,
2013-09-19 17:47:00,83.0,79.1,29.73,East,82,2.0,12.2,88,0.00,,---,0.01,135.00,VWS V14.01,2013-09-19 22:47:00,
2013-09-19 17:50:00,83.2,79.3,29.73,East,84,3.0,12.2,88,0.00,,---,0.01,95.00,VWS V14.01,2013-09-19 22:50:00,
2013-09-19 17:52:00,83.2,79.6,29.73,East,90,5.0,10.2,89,0.00,,---,0.01,83.00,VWS V14.01,2013-09-19 22:52:00,
2013-09-19 17:55:00,83.2,79.3,29.73,East,86,4.0,10.2,88,0.00,,---,0.01,53.00,VWS V14.01,2013-09-19 22:55:00,
2013-09-19 17:58:00,83.2,79.3,29.73,ESE,115,6.0,10.2,88,0.00,,---,0.01,46.00,VWS V14.01,2013-09-19 22:58:00,
2013-09-19 18:00:00,83.6,80.0,29.73,East,80,5.0,12.2,89,0.00,,---,0.01,60.00,VWS V14.01,2013-09-19 23:00:00,
2013-09-19 18:03:00,84.0,80.4,29.73,ENE,60,10.0,12.2,89,0.00,,---,0.01,69.00,VWS V14.01,2013-09-19 23:03:00,
2013-09-19 18:05:00,84.0,79.4,29.73,ESE,109,11.0,14.2,86,0.00,,---,0.01,88.00,VWS V14.01,2013-09-19 23:05:00,
2013-09-19 18:08:00,84.0,79.0,29.73,ESE,123,5.0,12.2,85,0.00,,---,0.01,90.00,VWS V14.01,2013-09-19 23:08:00,
2013-09-19 18:10:00,84.0,79.0,29.73,East,84,11.0,12.2,85,0.00,,---,0.01,93.00,VWS V14.01,2013-09-19 23:10:00,
2013-09-19 18:13:00,84.0,78.7,29.73,SE,132,6.0,12.2,84,0.00,,---,0.01,95.00,VWS V14.01,2013-09-19 23:13:00,
2013-09-19 18:15:00,84.1,78.8,29.73,ESE,103,11.0,13.2,84,0.00,,---,0.01,79.00,VWS V14.01,2013-09-19 23:15:00,
2013-09-19 18:18:00,84.1,78.8,29.73,East,93,5.0,13.2,84,0.00,,---,0.01,121.00,VWS V14.01,2013-09-19 23:18:00,
2013-09-19 18:20:00,84.1,78.4,29.73,ESE,105,6.0,14.2,83,0.00,,---,0.01,158.00,VWS V14.01,2013-09-19 23:20:00,
2013-09-19 18:23:00,84.3,78.9,29.73,ESE,113,6.0,11.2,84,0.00,,---,0.01,176.00,VWS V14.01,2013-09-19 23:23:00,
2013-09-19 18:25:00,84.1,78.4,29.73,ESE,107,10.0,15.2,83,0.00,,---,0.01,49.00,VWS V14.01,2013-09-19 23:25:00,
2013-09-19 18:28:00,84.1,78.4,29.73,East,101,6.0,15.2,83,0.00,,---,0.01,49.00,VWS V14.01,2013-09-19 23:28:00,
2013-09-19 18:30:00,84.3,78.6,29.73,ESE,105,11.0,15.2,83,0.00,,---,0.01,107.00,VWS V14.01,2013-09-19 23:30:00,
2013-09-19 18:33:00,84.5,78.8,29.73,ESE,102,7.0,13.2,83,0.00,,---,0.01,104.00,VWS V14.01,2013-09-19 23:33:00,
2013-09-19 18:35:00,84.3,77.8,29.73,East,101,10.0,13.2,81,0.00,,---,0.01,109.00,VWS V14.01,2013-09-19 23:35:00,
2013-09-19 18:38:00,84.3,77.8,29.73,East,97,3.0,11.2,81,0.00,,---,0.01,104.00,VWS V14.01,2013-09-19 23:38:00,
2013-09-19 18:40:00,84.3,78.2,29.73,East,93,5.0,14.2,82,0.00,,---,0.01,91.00,VWS V14.01,2013-09-19 23:40:00,
2013-09-19 18:43:00,84.3,78.2,29.73,East,90,5.0,11.2,82,0.00,,---,0.01,62.00,VWS V14.01,2013-09-19 23:43:00,
2013-09-19 18:45:00,84.3,78.6,29.73,ESE,117,6.0,12.2,83,0.00,,---,0.01,44.00,VWS V14.01,2013-09-19 23:45:00,
2013-09-19 18:48:00,84.1,78.4,29.73,East,86,6.0,11.2,83,0.00,,---,0.01,42.00,VWS V14.01,2013-09-19 23:48:00,
2013-09-19 18:50:00,84.1,78.4,29.73,ESE,104,6.0,11.2,83,0.00,,---,0.01,18.00,VWS V14.01,2013-09-19 23:50:00,
2013-09-19 18:53:00,84.0,78.3,29.73,East,97,7.0,12.2,83,0.00,,---,0.01,18.00,VWS V14.01,2013-09-19 23:53:00,
2013-09-19 18:55:00,83.8,77.7,29.73,East,96,8.0,13.2,82,0.00,,---,0.01,16.00,VWS V14.01,2013-09-19 23:55:00,
2013-09-19 18:58:00,83.8,77.3,29.73,ESE,116,8.0,12.2,81,0.00,,---,0.01,16.00,VWS V14.01,2013-09-19 23:58:00,
2013-09-19 19:00:00,84.1,77.3,29.74,East,89,4.0,13.2,80,0.00,,---,0.01,14.00,VWS V14.01,2013-09-20 00:00:00,
2013-09-19 19:03:00,84.3,77.5,29.74,ESE,103,4.0,13.2,80,0.00,,---,0.01,14.00,VWS V14.01,2013-09-20 00:03:00,
2013-09-19 19:05:00,84.3,77.5,29.74,East,85,4.0,13.2,80,0.00,,---,0.01,12.00,VWS V14.01,2013-09-20 00:05:00,
2013-09-19 19:08:00,84.1,77.6,29.74,East,98,5.0,8.2,81,0.00,,---,0.01,12.00,VWS V14.01,2013-09-20 00:08:00,
2013-09-19 19:10:00,84.1,77.6,29.74,ESE,107,6.0,10.2,81,0.00,,---,0.01,11.00,VWS V14.01,2013-09-20 00:10:00,
2013-09-19 19:13:00,84.0,77.9,29.74,East,93,9.0,12.2,82,0.00,,---,0.01,11.00,VWS V14.01,2013-09-20 00:13:00,
2013-09-19 19:15:00,84.0,77.9,29.73,East,96,5.0,14.2,82,0.00,,---,0.01,9.00,VWS V14.01,2013-09-20 00:15:00,
2013-09-19 19:18:00,84.0,77.9,29.73,East,90,10.0,13.2,82,0.00,,---,0.01,7.00,VWS V14.01,2013-09-20 00:18:00,
2013-09-19 19:20:00,84.0,77.9,29.73,East,98,7.0,13.2,82,0.00,,---,0.01,5.00,VWS V14.01,2013-09-20 00:20:00,
2013-09-19 19:23:00,84.0,77.9,29.73,ESE,109,8.0,10.2,82,0.00,,---,0.01,5.00,VWS V14.01,2013-09-20 00:23:00,
2013-09-19 19:25:00,83.8,77.7,29.73,ESE,114,6.0,13.2,82,0.00,,---,0.01,0.00,VWS V14.01,2013-09-20 00:25:00,
2013-09-19 19:28:00,83.8,78.1,29.73,ESE,108,5.0,10.2,83,0.00,,---,0.01,0.00,VWS V14.01,2013-09-20 00:28:00,
2013-09-19 19:30:00,83.6,78.3,29.73,East,101,5.0,12.2,84,0.00,,---,0.01,0.00,VWS V14.01,2013-09-20 00:30:00,
2013-09-19 19:32:00,83.8,78.4,29.73,East,94,5.0,8.2,84,0.00,,---,0.01,0.00,VWS V14.01,2013-09-20 00:32:00,
2013-09-19 19:35:00,83.8,78.4,29.73,ESE,105,6.0,10.2,84,0.00,,---,0.01,0.00,VWS V14.01,2013-09-20 00:35:00,
2013-09-19 19:37:00,84.0,78.7,29.73,SE,126,3.0,9.2,84,0.00,,---,0.01,0.00,VWS V14.01,2013-09-20 00:37:00,
2013-09-19 19:40:00,83.8,78.4,29.73,East,87,2.0,9.2,84,0.00,,---,0.01,0.00,VWS V14.01,2013-09-20 00:40:00,
2013-09-19 19:42:00,83.6,78.3,29.73,SE,126,7.0,10.2,84,0.00,,---,0.01,0.00,VWS V14.01,2013-09-20 00:42:00,
2013-09-19 19:45:00,83.4,78.1,29.74,East,100,9.0,12.2,84,0.00,,---,0.01,0.00,VWS V14.01,2013-09-20 00:45:00,
2013-09-19 19:48:00,83.4,78.1,29.74,East,97,6.0,12.2,84,0.00,,---,0.01,0.00,VWS V14.01,2013-09-20 00:48:00,
2013-09-19 19:50:00,83.4,78.4,29.74,East,99,9.0,12.2,85,0.00,,---,0.01,0.00,VWS V14.01,2013-09-20 00:50:00,
2013-09-19 19:53:00,83.4,78.4,29.74,ENE,62,11.0,12.2,85,0.00,,---,0.01,0.00,VWS V14.01,2013-09-20 00:53:00,
2013-09-19 19:55:00,83.4,78.8,29.74,ESE,119,9.0,14.2,86,0.00,,---,0.01,0.00,VWS V14.01,2013-09-20 00:55:00,
2013-09-19 19:58:00,83.4,78.8,29.74,ESE,103,11.0,14.2,86,0.00,,---,0.01,0.00,VWS V14.01,2013-09-20 00:58:00,
2013-09-19 20:00:00,83.4,78.8,29.75,East,96,7.0,14.2,86,0.00,,---,0.01,0.00,VWS V14.01,2013-09-20 01:00:00,
2013-09-19 20:03:00,83.2,78.6,29.75,East,96,4.0,11.2,86,0.00,,---,0.01,0.00,VWS V14.01,2013-09-20 01:03:00,
2013-09-19 20:05:00,83.2,78.6,29.75,ESE,104,9.0,15.2,86,0.00,,---,0.01,0.00,VWS V14.01,2013-09-20 01:05:00,
2013-09-19 20:07:00,83.2,78.6,29.75,SE,125,9.0,13.2,86,0.00,,---,0.01,0.00,VWS V14.01,2013-09-20 01:07:00,
2013-09-19 20:10:00,83.4,78.4,29.75,East,101,4.0,13.2,85,0.00,,---,0.01,0.00,VWS V14.01,2013-09-20 01:10:00,
2013-09-19 20:12:00,83.6,78.6,29.75,East,90,5.0,10.2,85,0.00,,---,0.01,0.00,VWS V14.01,2013-09-20 01:12:00,
2013-09-19 20:15:00,83.6,78.6,29.75,ESE,122,6.0,12.2,85,0.00,,---,0.01,0.00,VWS V14.01,2013-09-20 01:15:00,
2013-09-19 20:17:00,83.4,78.4,29.75,ESE,102,7.0,14.2,85,0.00,,---,0.01,0.00,VWS V14.01,2013-09-20 01:17:00,
2013-09-19 20:20:00,83.4,78.4,29.75,ESE,115,3.0,14.2,85,0.00,,---,0.01,0.00,VWS V14.01,2013-09-20 01:20:00,
2013-09-19 20:22:00,83.4,78.4,29.75,ENE,75,3.0,10.2,85,0.00,,---,0.01,0.00,VWS V14.01,2013-09-20 01:22:00,
2013-09-19 20:25:00,83.6,78.3,29.75,SE,124,9.0,10.2,84,0.00,,---,0.01,0.00,VWS V14.01,2013-09-20 01:25:00,
2013-09-19 20:27:00,83.6,78.3,29.75,ESE,107,4.0,12.2,84,0.00,,---,0.01,0.00,VWS V14.01,2013-09-20 01:27:00,
2013-09-19 20:30:00,83.4,78.1,29.75,East,96,4.0,12.2,84,0.00,,---,0.01,0.00,VWS V14.01,2013-09-20 01:30:00,
2013-09-19 20:32:00,83.4,78.1,29.75,East,86,5.0,8.2,84,0.00,,---,0.01,0.00,VWS V14.01,2013-09-20 01:32:00,
2013-09-19 20:35:00,83.4,78.1,29.75,East,96,2.0,11.2,84,0.00,,---,0.01,0.00,VWS V14.01,2013-09-20 01:35:00,
2013-09-19 20:37:00,83.4,78.1,29.75,East,81,4.0,10.2,84,0.00,,---,0.01,0.00,VWS V14.01,2013-09-20 01:37:00,
2013-09-19 20:40:00,83.2,78.2,29.75,East,88,7.0,11.2,85,0.00,,---,0.01,0.00,VWS V14.01,2013-09-20 01:40:00,
2013-09-19 20:42:00,83.2,78.2,29.75,East,96,6.0,11.2,85,0.00,,---,0.01,0.00,VWS V14.01,2013-09-20 01:42:00,
2013-09-19 20:45:00,83.0,78.4,29.75,ENE,76,5.0,11.2,86,0.00,,---,0.01,0.00,VWS V14.01,2013-09-20 01:45:00,
2013-09-19 20:47:00,83.0,78.7,29.75,East,80,11.0,12.2,87,0.00,,---,0.01,0.00,VWS V14.01,2013-09-20 01:47:00,
2013-09-19 20:50:00,83.2,78.6,29.75,ESE,102,9.0,13.2,86,0.00,,---,0.01,0.00,VWS V14.01,2013-09-20 01:50:00,
2013-09-19 20:53:00,83.2,78.6,29.75,SE,130,10.0,11.2,86,0.00,,---,0.01,0.00,VWS V14.01,2013-09-20 01:53:00,
2013-09-19 20:55:00,83.0,78.4,29.75,ESE,107,6.0,14.2,86,0.00,,---,0.01,0.00,VWS V14.01,2013-09-20 01:55:00,
2013-09-19 20:58:00,83.0,78.4,29.75,ESE,105,5.0,12.2,86,0.00,,---,0.01,0.00,VWS V14.01,2013-09-20 01:58:00,
2013-09-19 21:00:00,82.8,78.5,29.76,East,85,5.0,13.2,87,0.00,,---,0.01,0.00,VWS V14.01,2013-09-20 02:00:00,
2013-09-19 21:03:00,82.8,78.5,29.76,East,88,6.0,8.2,87,0.00,,---,0.01,0.00,VWS V14.01,2013-09-20 02:03:00,
2013-09-19 21:05:00,82.8,78.5,29.76,East,84,5.0,14.2,87,0.00,,---,0.01,0.00,VWS V14.01,2013-09-20 02:05:00,
2013-09-19 21:08:00,82.8,78.5,29.76,East,101,4.0,13.2,87,0.00,,---,0.01,0.00,VWS V14.01,2013-09-20 02:08:00,
2013-09-19 21:10:00,82.6,78.0,29.76,ESE,109,6.0,13.2,86,0.00,,---,0.01,0.00,VWS V14.01,2013-09-20 02:10:00,
2013-09-19 21:13:00,82.6,78.0,29.76,ESE,119,6.0,17.2,86,0.00,,---,0.01,0.00,VWS V14.01,2013-09-20 02:13:00,
2013-09-19 21:15:00,82.8,78.2,29.77,ESE,121,2.0,17.2,86,0.00,,---,0.01,0.00,VWS V14.01,2013-09-20 02:15:00,
2013-09-19 21:18:00,82.8,78.2,29.76,ESE,107,3.0,14.2,86,0.00,,---,0.01,0.00,VWS V14.01,2013-09-20 02:18:00,
2013-09-19 21:20:00,82.8,78.2,29.77,ESE,119,5.0,14.2,86,0.00,,---,0.01,0.00,VWS V14.01,2013-09-20 02:20:00,
2013-09-19 21:23:00,82.8,78.2,29.76,ESE,103,6.0,11.2,86,0.00,,---,0.01,0.00,VWS V14.01,2013-09-20 02:23:00,
2013-09-19 21:25:00,83.0,78.7,29.77,ESE,112,5.0,11.2,87,0.00,,---,0.01,0.00,VWS V14.01,2013-09-20 02:25:00,
2013-09-19 21:28:00,83.2,78.9,29.76,SE,125,5.0,14.2,87,0.00,,---,0.01,0.00,VWS V14.01,2013-09-20 02:28:00,
2013-09-19 21:30:00,83.6,78.6,29.77,ESE,119,9.0,14.2,85,0.00,,---,0.01,0.00,VWS V14.01,2013-09-20 02:30:00,
2013-09-19 21:33:00,83.6,78.3,29.76,ESE,122,9.0,12.2,84,0.00,,---,0.01,0.00,VWS V14.01,2013-09-20 02:33:00,
2013-09-19 21:35:00,83.6,78.3,29.77,ESE,105,11.0,15.2,84,0.00,,---,0.01,0.00,VWS V14.01,2013-09-20 02:35:00,
2013-09-19 21:38:00,83.4,77.7,29.76,ESE,119,7.0,19.2,83,0.00,,---,0.01,0.00,VWS V14.01,2013-09-20 02:38:00,
2013-09-19 21:40:00,83.2,77.1,29.77,ESE,116,12.0,19.2,82,0.00,,---,0.01,0.00,VWS V14.01,2013-09-20 02:40:00,
2013-09-19 21:43:00,83.2,77.1,29.76,East,96,5.0,16.2,82,0.00,,---,0.01,0.00,VWS V14.01,2013-09-20 02:43:00,
2013-09-19 21:45:00,83.2,77.1,29.77,East,101,9.0,16.2,82,0.00,,---,0.01,0.00,VWS V14.01,2013-09-20 02:45:00,
2013-09-19 21:48:00,83.2,77.1,29.77,ESE,108,6.0,15.2,82,0.00,,---,0.01,0.00,VWS V14.01,2013-09-20 02:48:00,
2013-09-19 21:50:00,83.0,77.3,29.77,SE,134,5.0,15.2,83,0.00,,---,0.01,0.00,VWS V14.01,2013-09-20 02:50:00,
2013-09-19 21:53:00,83.0,77.7,29.77,ESE,105,3.0,11.2,84,0.00,,---,0.01,0.00,VWS V14.01,2013-09-20 02:53:00,
2013-09-19 21:55:00,82.6,77.6,29.77,ENE,72,6.0,14.2,85,0.00,,---,0.01,0.00,VWS V14.01,2013-09-20 02:55:00,
2013-09-19 21:57:00,82.6,77.6,29.77,East,84,7.0,12.2,85,0.00,,---,0.01,0.00,VWS V14.01,2013-09-20 02:57:00,
2013-09-19 22:00:00,82.6,78.0,29.77,ESE,109,5.0,12.2,86,0.00,,---,0.01,0.00,VWS V14.01,2013-09-20 03:00:00,
2013-09-19 22:02:00,82.6,78.0,29.77,ESE,115,11.0,12.2,86,0.00,,---,0.01,0.00,VWS V14.01,2013-09-20 03:02:00,
2013-09-19 22:05:00,82.8,78.5,29.77,SE,144,7.0,13.2,87,0.00,,---,0.01,0.00,VWS V14.01,2013-09-20 03:05:00,
2013-09-19 22:07:00,83.0,78.4,29.77,SE,142,7.0,13.2,86,0.00,,---,0.01,0.00,VWS V14.01,2013-09-20 03:07:00,
2013-09-19 22:10:00,83.0,78.0,29.77,ESE,117,7.0,14.2,85,0.00,,---,0.01,0.00,VWS V14.01,2013-09-20 03:10:00,
2013-09-19 22:12:00,83.0,78.0,29.77,SE,131,11.0,12.2,85,0.00,,---,0.01,0.00,VWS V14.01,2013-09-20 03:12:00,
2013-09-19 22:15:00,82.8,77.8,29.77,SE,125,8.0,12.2,85,0.00,,---,0.01,0.00,VWS V14.01,2013-09-20 03:15:00,
2013-09-19 22:17:00,82.6,78.0,29.77,ESE,111,5.0,13.2,86,0.00,,---,0.01,0.00,VWS V14.01,2013-09-20 03:17:00,
2013-09-19 22:20:00,82.6,78.0,29.77,East,96,5.0,13.2,86,0.00,,---,0.01,0.00,VWS V14.01,2013-09-20 03:20:00,
2013-09-19 22:22:00,82.6,78.3,29.77,SE,124,5.0,8.2,87,0.00,,---,0.01,0.00,VWS V14.01,2013-09-20 03:22:00,
2013-09-19 22:25:00,82.4,78.1,29.77,East,99,4.0,11.2,87,0.00,,---,0.01,0.00,VWS V14.01,2013-09-20 03:25:00,
2013-09-19 22:28:00,82.4,78.1,29.77,ESE,111,7.0,8.2,87,0.00,,---,0.01,0.00,VWS V14.01,2013-09-20 03:28:00,
2013-09-19 22:30:00,82.4,78.1,29.77,SE,142,11.0,12.2,87,0.00,,---,0.01,0.00,VWS V14.01,2013-09-20 03:30:00,
2013-09-19 22:33:00,82.4,78.1,29.77,SE,126,4.0,12.2,87,0.00,,---,0.01,0.00,VWS V14.01,2013-09-20 03:33:00,
2013-09-19 22:35:00,82.4,78.1,29.77,East,100,6.0,12.2,87,0.00,,---,0.01,0.00,VWS V14.01,2013-09-20 03:35:00,
2013-09-19 22:38:00,82.4,78.1,29.77,ESE,117,6.0,12.2,87,0.00,,---,0.01,0.00,VWS V14.01,2013-09-20 03:38:00,
2013-09-19 22:40:00,82.6,78.3,29.77,SSE,158,5.0,13.2,87,0.00,,---,0.01,0.00,VWS V14.01,2013-09-20 03:40:00,
2013-09-19 22:43:00,82.6,78.0,29.77,SE,132,3.0,12.2,86,0.00,,---,0.01,0.00,VWS V14.01,2013-09-20 03:43:00,
2013-09-19 22:45:00,83.0,78.4,29.77,SE,133,2.0,12.2,86,0.00,,---,0.01,0.00,VWS V14.01,2013-09-20 03:45:00,
2013-09-19 22:48:00,83.2,78.6,29.76,SE,132,4.0,8.2,86,0.00,,---,0.01,0.00,VWS V14.01,2013-09-20 03:48:00,
2013-09-19 22:50:00,83.6,78.6,29.77,SE,139,3.0,10.2,85,0.00,,---,0.01,0.00,VWS V14.01,2013-09-20 03:50:00,
2013-09-19 22:53:00,83.6,78.6,29.76,SE,143,6.0,10.2,85,0.00,,---,0.01,0.00,VWS V14.01,2013-09-20 03:53:00,
2013-09-19 22:55:00,83.6,78.6,29.77,SE,130,10.0,11.2,85,0.00,,---,0.01,0.00,VWS V14.01,2013-09-20 03:55:00,
2013-09-19 22:58:00,83.4,78.8,29.76,ESE,108,10.0,13.2,86,0.00,,---,0.01,0.00,VWS V14.01,2013-09-20 03:58:00,
2013-09-19 23:00:00,83.2,78.6,29.76,SE,130,10.0,14.2,86,0.00,,---,0.01,0.00,VWS V14.01,2013-09-20 04:00:00,
2013-09-19 23:01:00,83.2,78.6,29.76,SSE,151,11.0,14.2,86,0.00,,---,0.01,0.00,VWS V14.01,2013-09-20 04:01:00,
2013-09-19 23:05:00,82.6,77.6,29.76,SE,134,7.0,14.2,85,0.00,,---,0.01,0.00,VWS V14.01,2013-09-20 04:05:00,
2013-09-19 23:06:00,82.6,77.6,29.76,ESE,116,6.0,14.2,85,0.00,,---,0.01,0.00,VWS V14.01,2013-09-20 04:06:00,
2013-09-19 23:10:00,82.4,77.4,29.76,SSE,149,10.0,16.2,85,0.00,,---,0.01,0.00,VWS V14.01,2013-09-20 04:10:00,
2013-09-19 23:11:00,82.4,77.4,29.76,SE,127,9.0,16.2,85,0.00,,---,0.01,0.00,VWS V14.01,2013-09-20 04:11:00,
2013-09-19 23:15:00,82.4,77.8,29.77,ESE,107,5.0,15.2,86,0.00,,---,0.01,0.00,VWS V14.01,2013-09-20 04:15:00,
2013-09-19 23:16:00,82.4,77.8,29.77,ESE,105,6.0,15.2,86,0.00,,---,0.01,0.00,VWS V14.01,2013-09-20 04:16:00,
2013-09-19 23:20:00,82.2,78.3,29.77,SE,140,4.0,13.2,88,0.00,,---,0.01,0.00,VWS V14.01,2013-09-20 04:20:00,
2013-09-19 23:21:00,82.2,78.3,29.77,SE,140,4.0,13.2,88,0.00,,---,0.01,0.00,VWS V14.01,2013-09-20 04:21:00,
2013-09-19 23:25:00,82.2,78.3,29.77,SE,134,12.0,15.2,88,0.00,,---,0.01,0.00,VWS V14.01,2013-09-20 04:25:00,
2013-09-19 23:26:00,82.2,78.3,29.77,SE,124,10.0,15.2,88,0.00,,---,0.01,0.00,VWS V14.01,2013-09-20 04:26:00,
2013-09-19 23:30:00,82.4,78.8,29.77,SE,130,6.0,15.2,89,0.00,,---,0.01,0.00,VWS V14.01,2013-09-20 04:30:00,
2013-09-19 23:31:00,82.4,78.8,29.77,SE,130,3.0,15.2,89,0.00,,---,0.01,0.00,VWS V14.01,2013-09-20 04:31:00,
2013-09-19 23:35:00,82.6,78.3,29.77,SE,130,4.0,19.2,87,0.00,,---,0.01,0.00,VWS V14.01,2013-09-20 04:35:00,
2013-09-19 23:36:00,82.6,78.3,29.77,ESE,117,5.0,19.2,87,0.00,,---,0.01,0.00,VWS V14.01,2013-09-20 04:36:00,
2013-09-19 23:40:00,82.4,78.1,29.77,SE,124,8.0,16.2,87,0.00,,---,0.01,0.00,VWS V14.01,2013-09-20 04:40:00,
2013-09-19 23:41:00,82.4,78.1,29.77,ESE,117,6.0,16.2,87,0.00,,---,0.01,0.00,VWS V14.01,2013-09-20 04:41:00,
2013-09-19 23:45:00,82.4,78.5,29.76,SSE,148,9.0,18.2,88,0.00,,---,0.01,0.00,VWS V14.01,2013-09-20 04:45:00,
2013-09-19 23:46:00,82.4,78.5,29.76,SE,130,9.0,18.2,88,0.00,,---,0.01,0.00,VWS V14.01,2013-09-20 04:46:00,
2013-09-19 23:50:00,82.4,78.5,29.76,SE,129,10.0,17.2,88,0.00,,---,0.01,0.00,VWS V14.01,2013-09-20 04:50:00,
2013-09-19 23:51:00,82.4,78.5,29.76,ESE,117,13.0,17.2,88,0.00,,---,0.01,0.00,VWS V14.01,2013-09-20 04:51:00,
2013-09-19 23:55:00,82.6,78.7,29.76,ESE,116,13.0,16.2,88,0.00,,---,0.01,0.00,VWS V14.01,2013-09-20 04:55:00,
2013-09-19 23:56:00,82.6,78.7,29.76,SSE,150,11.0,16.2,88,0.00,,---,0.01,0.00,VWS V14.01,2013-09-20 04:56:00,